Time,TemperatureF,DewpointF,PressureIn,WindDirection,WindDirectionDegrees,WindSpeedMPH,WindSpeedGustMPH,Humidity,HourlyPrecipIn,Conditions,Clouds,dailyrainin,SolarRadiationWatts/m^2,SoftwareType,DateUTC
2013-03-18 00:00:00,66.7,41.6,29.85,East,94,5.0,0.0,40,0.00,,,0.00,0,WeatherHawk,2013-03-18 07:00:00,
2013-03-18 00:01:00,66.7,41.6,29.85,ESE,113,6.0,0.0,40,0.00,,,0.00,0,WeatherHawk,2013-03-18 07:01:00,
2013-03-18 00:04:00,66.6,41.5,29.85,East,100,3.0,-999.0,40,0.00,,,0.00,0,WeatherHawk,2013-03-18 07:04:00,
2013-03-18 00:06:00,66.4,41.3,29.85,NW,325,3.0,0.0,40,0.00,,,0.00,0,WeatherHawk,2013-03-18 07:06:00,
2013-03-18 00:07:00,66.4,41.3,29.85,NNW,347,4.0,0.0,40,0.00,,,0.00,0,WeatherHawk,2013-03-18 07:07:00,
2013-03-18 00:09:00,66.0,42.3,29.85,North,1,3.0,0.0,42,0.00,,,0.00,0,WeatherHawk,2013-03-18 07:09:00,
2013-03-18 00:11:00,65.8,41.5,29.85,ENE,65,3.0,7.0,41,0.00,,,0.00,0,WeatherHawk,2013-03-18 07:11:00,
2013-03-18 00:12:00,65.8,40.8,29.85,East,94,4.0,7.0,40,0.00,,,0.00,0,WeatherHawk,2013-03-18 07:12:00,
2013-03-18 00:17:00,66.2,40.5,29.85,ENE,68,3.0,7.0,39,0.00,,,0.00,0,WeatherHawk,2013-03-18 07:17:00,
2013-03-18 00:19:00,66.0,40.3,29.85,ENE,75,3.0,7.0,39,0.00,,,0.00,0,WeatherHawk,2013-03-18 07:19:00,
2013-03-18 00:21:00,65.8,40.8,29.86,NE,41,2.0,0.0,40,0.00,,,0.00,1,WeatherHawk,2013-03-18 07:21:00,
2013-03-18 00:23:00,65.7,40.7,29.86,North,10,0.0,0.0,40,0.00,,,0.00,0,WeatherHawk,2013-03-18 07:23:00,
2013-03-18 00:24:00,65.5,40.5,29.86,ENE,60,1.0,0.0,40,0.00,,,0.00,0,WeatherHawk,2013-03-18 07:24:00,
2013-03-18 00:27:00,65.3,39.7,29.86,East,82,2.0,0.0,39,0.00,,,0.00,0,WeatherHawk,2013-03-18 07:27:00,
2013-03-18 00:29:00,65.5,39.9,29.86,NE,44,1.0,0.0,39,0.00,,,0.00,0,WeatherHawk,2013-03-18 07:29:00,
2013-03-18 00:31:00,65.7,40.0,29.86,NE,44,2.0,4.0,39,0.00,,,0.00,0,WeatherHawk,2013-03-18 07:31:00,
2013-03-18 00:34:00,65.7,40.0,29.86,NNE,17,2.0,4.0,39,0.00,,,0.00,0,WeatherHawk,2013-03-18 07:34:00,
2013-03-18 00:35:00,65.5,39.2,29.86,NE,38,2.0,4.0,38,0.00,,,0.00,0,WeatherHawk,2013-03-18 07:35:00,
2013-03-18 00:37:00,65.5,39.2,29.86,NE,46,2.0,4.0,38,0.00,,,0.00,0,WeatherHawk,2013-03-18 07:37:00,
2013-03-18 00:40:00,65.8,39.5,29.86,ESE,107,1.0,0.0,38,0.00,,,0.00,0,WeatherHawk,2013-03-18 07:40:00,
2013-03-18 00:41:00,65.8,38.8,29.86,East,85,2.0,0.0,37,0.00,,,0.00,1,WeatherHawk,2013-03-18 07:41:00,
2013-03-18 00:42:00,65.7,38.7,29.85,East,92,1.0,0.0,37,0.00,,,0.00,0,WeatherHawk,2013-03-18 07:42:00,
2013-03-18 00:46:00,65.7,38.7,29.85,ENE,73,1.0,0.0,37,0.00,,,0.00,0,WeatherHawk,2013-03-18 07:46:00,
2013-03-18 00:47:00,65.7,39.4,29.85,ENE,63,1.0,0.0,38,0.00,,,0.00,0,WeatherHawk,2013-03-18 07:47:00,
2013-03-18 00:49:00,65.5,38.5,29.85,East,90,4.0,0.0,37,0.00,,,0.00,0,WeatherHawk,2013-03-18 07:49:00,
2013-03-18 00:52:00,65.5,38.5,29.85,NE,42,1.0,0.0,37,0.00,,,0.00,0,WeatherHawk,2013-03-18 07:52:00,
2013-03-18 00:54:00,65.5,39.2,29.85,NNW,331,1.0,-999.0,38,0.00,,,0.00,1,WeatherHawk,2013-03-18 07:54:00,
2013-03-18 00:55:00,65.5,38.5,29.86,ENE,71,1.0,0.0,37,0.00,,,0.00,0,WeatherHawk,2013-03-18 07:55:00,
2013-03-18 00:59:00,65.3,38.4,29.86,NNE,33,0.0,0.0,37,0.00,,,0.00,0,WeatherHawk,2013-03-18 07:59:00,
2013-03-18 01:00:00,65.3,38.4,29.85,ESE,105,1.0,0.0,37,0.00,,,0.00,0,WeatherHawk,2013-03-18 08:00:00,
2013-03-18 01:02:00,65.3,38.4,29.85,East,101,1.0,0.0,37,0.00,,,0.00,0,WeatherHawk,2013-03-18 08:02:00,
2013-03-18 01:04:00,65.3,38.4,29.85,ESE,102,1.0,0.0,37,0.00,,,0.00,0,WeatherHawk,2013-03-18 08:04:00,
2013-03-18 01:05:00,65.3,38.4,29.85,SSE,166,0.0,0.0,37,0.00,,,0.00,0,WeatherHawk,2013-03-18 08:05:00,
2013-03-18 01:06:00,65.1,38.2,29.85,SSW,201,1.0,0.0,37,0.00,,,0.00,0,WeatherHawk,2013-03-18 08:06:00,
2013-03-18 01:08:00,64.9,38.0,29.85,South,176,1.0,0.0,37,0.00,,,0.00,0,WeatherHawk,2013-03-18 08:08:00,
2013-03-18 01:11:00,64.9,38.0,29.85,SSW,202,1.0,0.0,37,0.00,,,0.00,0,WeatherHawk,2013-03-18 08:11:00,
2013-03-18 01:13:00,64.8,37.9,29.85,SW,217,1.0,0.0,37,0.00,,,0.00,0,WeatherHawk,2013-03-18 08:13:00,
2013-03-18 01:14:00,64.8,37.9,29.85,SW,217,1.0,-999.0,37,0.00,,,0.00,0,WeatherHawk,2013-03-18 08:14:00,
2013-03-18 01:18:00,64.6,39.7,29.86,West,277,2.0,0.0,40,0.00,,,0.00,0,WeatherHawk,2013-03-18 08:18:00,
2013-03-18 01:19:00,64.6,39.7,29.86,West,277,2.0,-999.0,40,0.00,,,0.00,0,WeatherHawk,2013-03-18 08:19:00,
2013-03-18 01:24:00,63.9,39.7,29.85,WNW,284,2.0,2.0,41,0.00,,,0.00,0,WeatherHawk,2013-03-18 08:24:00,
2013-03-18 01:25:00,63.7,41.9,29.86,WSW,246,2.0,2.0,45,0.00,,,0.00,0,WeatherHawk,2013-03-18 08:25:00,
2013-03-18 01:30:00,63.5,38.7,29.86,West,267,3.0,0.0,40,0.00,,,0.00,0,WeatherHawk,2013-03-18 08:30:00,
2013-03-18 01:33:00,64.0,41.1,29.86,WNW,285,4.0,0.0,43,0.00,,,0.00,0,WeatherHawk,2013-03-18 08:33:00,
2013-03-18 01:35:00,63.7,41.4,29.86,WNW,290,4.0,0.0,44,0.00,,,0.00,1,WeatherHawk,2013-03-18 08:35:00,
2013-03-18 01:37:00,63.5,40.6,29.86,WNW,292,4.0,0.0,43,0.00,,,0.00,0,WeatherHawk,2013-03-18 08:37:00,
2013-03-18 01:39:00,63.5,40.0,29.86,WNW,297,4.0,0.0,42,0.00,,,0.00,0,WeatherHawk,2013-03-18 08:39:00,
2013-03-18 01:41:00,63.5,40.6,29.86,WNW,288,4.0,0.0,43,0.00,,,0.00,0,WeatherHawk,2013-03-18 08:41:00,
2013-03-18 01:43:00,63.5,41.8,29.86,WSW,258,2.0,0.0,45,0.00,,,0.00,0,WeatherHawk,2013-03-18 08:43:00,
2013-03-18 01:44:00,63.5,41.8,29.86,WSW,258,2.0,-999.0,45,0.00,,,0.00,0,WeatherHawk,2013-03-18 08:44:00,
2013-03-18 01:46:00,63.1,41.4,29.86,West,267,3.0,0.0,45,0.00,,,0.00,0,WeatherHawk,2013-03-18 08:46:00,
2013-03-18 01:49:00,63.0,40.7,29.86,West,280,3.0,0.0,44,0.00,,,0.00,0,WeatherHawk,2013-03-18 08:49:00,
2013-03-18 01:51:00,62.8,38.7,29.86,SSW,202,1.0,0.0,41,0.00,,,0.00,0,WeatherHawk,2013-03-18 08:51:00,
2013-03-18 01:53:00,63.1,38.4,29.86,WSW,237,2.0,0.0,40,0.00,,,0.00,0,WeatherHawk,2013-03-18 08:53:00,
2013-03-18 01:54:00,63.5,38.7,29.86,WSW,245,2.0,0.0,40,0.00,,,0.00,0,WeatherHawk,2013-03-18 08:54:00,
2013-03-18 01:56:00,64.0,38.6,29.86,WSW,239,3.0,0.0,39,0.00,,,0.00,0,WeatherHawk,2013-03-18 08:56:00,
2013-03-18 01:57:00,64.2,38.7,29.86,WSW,238,3.0,0.0,39,0.00,,,0.00,0,WeatherHawk,2013-03-18 08:57:00,
2013-03-18 01:59:00,64.4,38.2,29.86,SW,225,3.0,0.0,38,0.00,,,0.00,0,WeatherHawk,2013-03-18 08:59:00,
2013-03-18 02:00:00,64.9,37.3,29.86,SSW,194,5.0,0.0,36,0.00,,,0.00,0,WeatherHawk,2013-03-18 09:00:00,
2013-03-18 02:04:00,65.8,37.4,29.86,South,176,5.0,0.0,35,0.00,,,0.00,0,WeatherHawk,2013-03-18 09:04:00,
2013-03-18 02:08:00,65.8,38.1,29.86,South,184,4.0,0.0,36,0.00,,,0.00,0,WeatherHawk,2013-03-18 09:08:00,
2013-03-18 02:09:00,65.5,37.1,29.86,SSW,193,5.0,0.0,35,0.00,,,0.00,0,WeatherHawk,2013-03-18 09:09:00,
2013-03-18 02:13:00,65.3,37.7,29.86,South,188,5.0,0.0,36,0.00,,,0.00,0,WeatherHawk,2013-03-18 09:13:00,
2013-03-18 02:14:00,65.3,37.7,29.86,SSW,192,4.0,0.0,36,0.00,,,0.00,0,WeatherHawk,2013-03-18 09:14:00,
2013-03-18 02:15:00,65.1,37.5,29.86,SSW,199,5.0,0.0,36,0.00,,,0.00,0,WeatherHawk,2013-03-18 09:15:00,
2013-03-18 02:19:00,64.2,38.1,29.86,SSE,167,6.0,0.0,38,0.00,,,0.00,0,WeatherHawk,2013-03-18 09:19:00,
2013-03-18 02:20:00,63.5,38.1,29.85,South,175,6.0,0.0,39,0.00,,,0.00,0,WeatherHawk,2013-03-18 09:20:00,
2013-03-18 02:22:00,63.0,38.3,29.85,South,174,5.0,0.0,40,0.00,,,0.00,0,WeatherHawk,2013-03-18 09:22:00,
2013-03-18 02:25:00,62.4,38.4,29.85,SSE,157,6.0,0.0,41,0.00,,,0.00,0,WeatherHawk,2013-03-18 09:25:00,
2013-03-18 02:27:00,62.4,38.4,29.85,SSE,148,6.0,0.0,41,0.00,,,0.00,0,WeatherHawk,2013-03-18 09:27:00,
2013-03-18 02:28:00,62.2,38.9,29.85,SSE,150,6.0,0.0,42,0.00,,,0.00,0,WeatherHawk,2013-03-18 09:28:00,
2013-03-18 02:29:00,62.2,38.9,29.85,SSE,150,6.0,0.0,42,0.00,,,0.00,0,WeatherHawk,2013-03-18 09:29:00,
2013-03-18 02:30:00,61.3,38.6,29.85,SSE,155,5.0,0.0,43,0.00,,,0.00,0,WeatherHawk,2013-03-18 09:30:00,
2013-03-18 02:34:00,61.0,38.3,29.85,SSE,159,7.0,0.0,43,0.00,,,0.00,0,WeatherHawk,2013-03-18 09:34:00,
2013-03-18 02:36:00,61.9,38.5,29.85,SSE,162,7.0,0.0,42,0.00,,,0.00,0,WeatherHawk,2013-03-18 09:36:00,
2013-03-18 02:38:00,62.2,38.2,29.85,SSE,166,6.0,0.0,41,0.00,,,0.00,0,WeatherHawk,2013-03-18 09:38:00,
2013-03-18 02:39:00,62.2,38.2,29.85,SSE,166,6.0,0.0,41,0.00,,,0.00,0,WeatherHawk,2013-03-18 09:39:00,
2013-03-18 02:40:00,62.2,38.2,29.85,SSE,164,6.0,0.0,41,0.00,,,0.00,0,WeatherHawk,2013-03-18 09:40:00,
2013-03-18 02:43:00,62.4,37.8,29.85,SSE,158,6.0,8.0,40,0.00,,,0.00,0,WeatherHawk,2013-03-18 09:43:00,
2013-03-18 02:44:00,62.4,37.8,29.85,SSE,158,6.0,8.0,40,0.00,,,0.00,0,WeatherHawk,2013-03-18 09:44:00,
2013-03-18 02:46:00,62.1,38.1,29.85,SSE,153,6.0,8.0,41,0.00,,,0.00,0,WeatherHawk,2013-03-18 09:46:00,
2013-03-18 02:47:00,61.9,37.3,29.85,SSE,149,7.0,8.0,40,0.00,,,0.00,0,WeatherHawk,2013-03-18 09:47:00,
2013-03-18 02:49:00,62.1,37.5,29.85,SSE,157,7.0,8.0,40,0.00,,,0.00,0,WeatherHawk,2013-03-18 09:49:00,
2013-03-18 02:54:00,63.3,36.6,29.85,SSE,159,10.0,10.0,37,0.00,,,0.00,0,WeatherHawk,2013-03-18 09:54:00,
2013-03-18 02:55:00,63.7,36.9,29.85,SSE,150,8.0,8.0,37,0.00,,,0.00,0,WeatherHawk,2013-03-18 09:55:00,
2013-03-18 02:58:00,64.0,36.5,29.85,SSE,153,9.0,9.0,36,0.00,,,0.00,0,WeatherHawk,2013-03-18 09:58:00,
2013-03-18 02:59:00,64.2,36.7,29.85,SSE,152,7.0,8.0,36,0.00,,,0.00,0,WeatherHawk,2013-03-18 09:59:00,
2013-03-18 03:01:00,63.9,36.4,29.85,SSE,148,10.0,0.0,36,0.00,,,0.00,0,WeatherHawk,2013-03-18 10:01:00,
2013-03-18 03:04:00,63.9,36.4,29.85,SE,143,9.0,0.0,36,0.00,,,0.00,0,WeatherHawk,2013-03-18 10:04:00,
2013-03-18 03:07:00,63.9,36.4,29.85,SSE,150,10.0,0.0,36,0.00,,,0.00,0,WeatherHawk,2013-03-18 10:07:00,
2013-03-18 03:08:00,63.9,37.1,29.85,SSE,147,9.0,0.0,37,0.00,,,0.00,0,WeatherHawk,2013-03-18 10:08:00,
2013-03-18 03:09:00,63.9,37.1,29.85,SSE,147,9.0,0.0,37,0.00,,,0.00,0,WeatherHawk,2013-03-18 10:09:00,
2013-03-18 03:13:00,63.5,36.8,29.85,SSE,147,9.0,12.0,37,0.00,,,0.00,0,WeatherHawk,2013-03-18 10:13:00,
2013-03-18 03:14:00,63.3,37.3,29.85,SE,141,11.0,12.0,38,0.00,,,0.00,0,WeatherHawk,2013-03-18 10:14:00,
2013-03-18 03:18:00,63.1,37.1,29.85,SE,146,11.0,12.0,38,0.00,,,0.00,0,WeatherHawk,2013-03-18 10:18:00,
2013-03-18 03:19:00,63.1,37.1,29.84,SE,145,9.0,0.0,38,0.00,,,0.00,0,WeatherHawk,2013-03-18 10:19:00,
2013-03-18 03:20:00,63.0,37.6,29.84,SE,144,10.0,0.0,39,0.00,,,0.00,0,WeatherHawk,2013-03-18 10:20:00,
2013-03-18 03:21:00,63.0,37.6,29.84,SSE,147,10.0,0.0,39,0.00,,,0.00,0,WeatherHawk,2013-03-18 10:21:00,
2013-03-18 03:23:00,62.8,37.5,29.84,SE,143,9.0,0.0,39,0.00,,,0.00,0,WeatherHawk,2013-03-18 10:23:00,
2013-03-18 03:27:00,62.8,37.5,29.84,SE,140,9.0,0.0,39,0.00,,,0.00,0,WeatherHawk,2013-03-18 10:27:00,
2013-03-18 03:29:00,62.6,37.9,29.84,SSE,147,10.0,-999.0,40,0.00,,,0.00,0,WeatherHawk,2013-03-18 10:29:00,
2013-03-18 03:32:00,62.4,37.8,29.84,SE,137,9.0,0.0,40,0.00,,,0.00,0,WeatherHawk,2013-03-18 10:32:00,
2013-03-18 03:33:00,62.4,37.8,29.84,SE,140,8.0,0.0,40,0.00,,,0.00,0,WeatherHawk,2013-03-18 10:33:00,
2013-03-18 03:34:00,62.2,37.6,29.84,SE,135,8.0,0.0,40,0.00,,,0.00,0,WeatherHawk,2013-03-18 10:34:00,
2013-03-18 03:38:00,62.2,38.2,29.84,SE,134,8.0,0.0,41,0.00,,,0.00,0,WeatherHawk,2013-03-18 10:38:00,
2013-03-18 03:39:00,62.2,38.2,29.84,SE,134,8.0,-999.0,41,0.00,,,0.00,0,WeatherHawk,2013-03-18 10:39:00,
2013-03-18 03:44:00,61.9,37.9,29.84,SE,134,7.0,-999.0,41,0.00,,,0.00,0,WeatherHawk,2013-03-18 10:44:00,
2013-03-18 03:46:00,61.7,38.4,29.84,SE,135,9.0,10.0,42,0.00,,,0.00,0,WeatherHawk,2013-03-18 10:46:00,
2013-03-18 03:49:00,61.7,38.4,29.84,SE,132,8.0,10.0,42,0.00,,,0.00,0,WeatherHawk,2013-03-18 10:49:00,
2013-03-18 03:51:00,61.5,38.2,29.84,SE,132,9.0,0.0,42,0.00,,,0.00,0,WeatherHawk,2013-03-18 10:51:00,
2013-03-18 03:53:00,61.5,38.8,29.84,SE,133,8.0,0.0,43,0.00,,,0.00,1,WeatherHawk,2013-03-18 10:53:00,
2013-03-18 03:54:00,61.5,38.8,29.84,SE,136,9.0,0.0,43,0.00,,,0.00,1,WeatherHawk,2013-03-18 10:54:00,
2013-03-18 03:55:00,61.5,38.8,29.84,SE,135,9.0,0.0,43,0.00,,,0.00,0,WeatherHawk,2013-03-18 10:55:00,
2013-03-18 03:58:00,61.3,38.6,29.84,SE,140,10.0,0.0,43,0.00,,,0.00,0,WeatherHawk,2013-03-18 10:58:00,
2013-03-18 03:59:00,61.3,38.6,29.84,SE,135,9.0,0.0,43,0.00,,,0.00,0,WeatherHawk,2013-03-18 10:59:00,
2013-03-18 04:00:00,61.2,38.5,29.84,SE,130,8.0,0.0,43,0.00,,,0.00,0,WeatherHawk,2013-03-18 11:00:00,
2013-03-18 04:04:00,61.2,39.1,29.84,SE,130,9.0,0.0,44,0.00,,,0.00,0,WeatherHawk,2013-03-18 11:04:00,
2013-03-18 04:05:00,61.2,39.1,29.84,SE,133,9.0,0.0,44,0.00,,,0.00,0,WeatherHawk,2013-03-18 11:05:00,
2013-03-18 04:06:00,61.2,39.1,29.84,SE,128,10.0,0.0,44,0.00,,,0.00,0,WeatherHawk,2013-03-18 11:06:00,
2013-03-18 04:09:00,61.0,39.5,29.84,SE,134,11.0,0.0,45,0.00,,,0.00,0,WeatherHawk,2013-03-18 11:09:00,
2013-03-18 04:12:00,61.0,39.5,29.84,SE,134,10.0,0.0,45,0.00,,,0.00,0,WeatherHawk,2013-03-18 11:12:00,
2013-03-18 04:14:00,61.0,40.1,29.84,SE,133,10.0,0.0,46,0.00,,,0.00,0,WeatherHawk,2013-03-18 11:14:00,
2013-03-18 04:18:00,61.0,40.1,29.84,SE,132,9.0,0.0,46,0.00,,,0.00,0,WeatherHawk,2013-03-18 11:18:00,
2013-03-18 04:19:00,61.0,40.1,29.84,SE,142,10.0,0.0,46,0.00,,,0.00,0,WeatherHawk,2013-03-18 11:19:00,
2013-03-18 04:20:00,61.0,40.1,29.84,SE,131,10.0,0.0,46,0.00,,,0.00,0,WeatherHawk,2013-03-18 11:20:00,
2013-03-18 04:21:00,61.0,40.1,29.84,SE,140,9.0,0.0,46,0.00,,,0.00,0,WeatherHawk,2013-03-18 11:21:00,
2013-03-18 04:25:00,60.8,40.4,29.84,SE,136,10.0,0.0,47,0.00,,,0.00,0,WeatherHawk,2013-03-18 11:25:00,
2013-03-18 04:26:00,60.8,40.4,29.84,SE,141,9.0,0.0,47,0.00,,,0.00,0,WeatherHawk,2013-03-18 11:26:00,
2013-03-18 04:27:00,60.8,40.4,29.84,SE,132,9.0,0.0,47,0.00,,,0.00,0,WeatherHawk,2013-03-18 11:27:00,
2013-03-18 04:31:00,60.8,41.0,29.84,SE,140,11.0,0.0,48,0.00,,,0.00,0,WeatherHawk,2013-03-18 11:31:00,
2013-03-18 04:32:00,60.8,41.0,29.84,SE,136,9.0,0.0,48,0.00,,,0.00,0,WeatherHawk,2013-03-18 11:32:00,
2013-03-18 04:33:00,60.8,41.0,29.84,SE,139,9.0,0.0,48,0.00,,,0.00,0,WeatherHawk,2013-03-18 11:33:00,
2013-03-18 04:34:00,60.8,41.0,29.84,SE,139,9.0,0.0,48,0.00,,,0.00,0,WeatherHawk,2013-03-18 11:34:00,
2013-03-18 04:37:00,60.8,41.0,29.84,SE,134,11.0,0.0,48,0.00,,,0.00,0,WeatherHawk,2013-03-18 11:37:00,
2013-03-18 04:39:00,60.8,41.0,29.84,SE,138,10.0,0.0,48,0.00,,,0.00,0,WeatherHawk,2013-03-18 11:39:00,
2013-03-18 04:40:00,60.8,41.0,29.84,SE,133,9.0,0.0,48,0.00,,,0.00,0,WeatherHawk,2013-03-18 11:40:00,
2013-03-18 04:42:00,60.6,40.8,29.84,SE,126,9.0,0.0,48,0.00,,,0.00,0,WeatherHawk,2013-03-18 11:42:00,
2013-03-18 04:43:00,60.6,40.8,29.84,SE,133,9.0,0.0,48,0.00,,,0.00,0,WeatherHawk,2013-03-18 11:43:00,
2013-03-18 04:44:00,60.6,40.8,29.84,SE,133,9.0,0.0,48,0.00,,,0.00,0,WeatherHawk,2013-03-18 11:44:00,
2013-03-18 04:48:00,60.6,41.4,29.85,SE,132,9.0,0.0,49,0.00,,,0.00,0,WeatherHawk,2013-03-18 11:48:00,
2013-03-18 04:49:00,60.6,41.4,29.85,SE,132,9.0,0.0,49,0.00,,,0.00,0,WeatherHawk,2013-03-18 11:49:00,
2013-03-18 04:54:00,60.8,41.5,29.84,SE,135,10.0,0.0,49,0.00,,,0.00,0,WeatherHawk,2013-03-18 11:54:00,
2013-03-18 04:56:00,61.0,41.7,29.85,SE,136,9.0,0.0,49,0.00,,,0.00,0,WeatherHawk,2013-03-18 11:56:00,
2013-03-18 04:58:00,61.0,41.7,29.85,SE,141,12.0,0.0,49,0.00,,,0.00,0,WeatherHawk,2013-03-18 11:58:00,
2013-03-18 05:00:00,61.2,41.8,29.85,SE,135,11.0,0.0,49,0.00,,,0.00,0,WeatherHawk,2013-03-18 12:00:00,
2013-03-18 05:01:00,61.3,42.0,29.85,SE,132,10.0,0.0,49,0.00,,,0.00,0,WeatherHawk,2013-03-18 12:01:00,
2013-03-18 05:03:00,61.3,42.0,29.85,SE,139,11.0,0.0,49,0.00,,,0.00,0,WeatherHawk,2013-03-18 12:03:00,
2013-03-18 05:06:00,61.2,41.8,29.85,SE,131,9.0,0.0,49,0.00,,,0.00,0,WeatherHawk,2013-03-18 12:06:00,
2013-03-18 05:07:00,61.2,41.8,29.85,SE,131,10.0,0.0,49,0.00,,,0.00,0,WeatherHawk,2013-03-18 12:07:00,
2013-03-18 05:09:00,61.2,41.8,29.85,SE,137,9.0,0.0,49,0.00,,,0.00,0,WeatherHawk,2013-03-18 12:09:00,
2013-03-18 05:11:00,61.0,41.7,29.86,SE,139,9.0,0.0,49,0.00,,,0.00,0,WeatherHawk,2013-03-18 12:11:00,
2013-03-18 05:13:00,60.8,42.0,29.86,SE,135,9.0,0.0,50,0.00,,,0.00,0,WeatherHawk,2013-03-18 12:13:00,
2013-03-18 05:14:00,60.8,42.0,29.86,SE,139,9.0,0.0,50,0.00,,,0.00,0,WeatherHawk,2013-03-18 12:14:00,
2013-03-18 05:15:00,60.8,42.0,29.86,SE,144,9.0,0.0,50,0.00,,,0.00,0,WeatherHawk,2013-03-18 12:15:00,
2013-03-18 05:17:00,60.6,41.9,29.86,SE,144,9.0,0.0,50,0.00,,,0.00,0,WeatherHawk,2013-03-18 12:17:00,
2013-03-18 05:18:00,60.6,41.9,29.86,SE,143,10.0,0.0,50,0.00,,,0.00,0,WeatherHawk,2013-03-18 12:18:00,
2013-03-18 05:21:00,60.4,41.7,29.86,SE,139,8.0,0.0,50,0.00,,,0.00,0,WeatherHawk,2013-03-18 12:21:00,
2013-03-18 05:24:00,60.3,42.1,29.86,SE,136,9.0,-999.0,51,0.00,,,0.00,0,WeatherHawk,2013-03-18 12:24:00,
2013-03-18 05:29:00,60.1,41.9,29.86,SE,138,9.0,0.0,51,0.00,,,0.00,0,WeatherHawk,2013-03-18 12:29:00,
2013-03-18 05:30:00,60.1,41.9,29.86,SE,133,9.0,0.0,51,0.00,,,0.00,0,WeatherHawk,2013-03-18 12:30:00,
2013-03-18 05:33:00,59.9,42.2,29.86,SE,132,9.0,0.0,52,0.00,,,0.00,0,WeatherHawk,2013-03-18 12:33:00,
2013-03-18 05:34:00,60.1,42.4,29.86,SE,135,9.0,0.0,52,0.00,,,0.00,0,WeatherHawk,2013-03-18 12:34:00,
2013-03-18 05:37:00,60.1,42.4,29.86,SE,134,10.0,0.0,52,0.00,,,0.00,1,WeatherHawk,2013-03-18 12:37:00,
2013-03-18 05:39:00,60.1,42.4,29.86,SE,136,9.0,-999.0,52,0.00,,,0.00,0,WeatherHawk,2013-03-18 12:39:00,
2013-03-18 05:43:00,60.1,42.4,29.86,SE,132,10.0,11.0,52,0.00,,,0.00,0,WeatherHawk,2013-03-18 12:43:00,
2013-03-18 05:44:00,60.1,42.4,29.86,SE,132,10.0,-999.0,52,0.00,,,0.00,0,WeatherHawk,2013-03-18 12:44:00,
2013-03-18 05:45:00,59.9,42.2,29.86,SE,135,8.0,11.0,52,0.00,,,0.00,0,WeatherHawk,2013-03-18 12:45:00,
2013-03-18 05:46:00,59.9,42.2,29.86,SE,135,8.0,11.0,52,0.00,,,0.00,0,WeatherHawk,2013-03-18 12:46:00,
2013-03-18 05:48:00,59.9,42.2,29.86,SE,130,11.0,11.0,52,0.00,,,0.00,0,WeatherHawk,2013-03-18 12:48:00,
2013-03-18 05:49:00,59.9,42.2,29.86,SE,130,11.0,11.0,52,0.00,,,0.00,0,WeatherHawk,2013-03-18 12:49:00,
2013-03-18 05:54:00,59.7,42.6,29.86,SE,135,10.0,0.0,53,0.00,,,0.00,0,WeatherHawk,2013-03-18 12:54:00,
2013-03-18 05:58:00,59.7,42.6,29.86,SE,133,10.0,0.0,53,0.00,,,0.00,0,WeatherHawk,2013-03-18 12:58:00,
2013-03-18 05:59:00,59.7,42.6,29.86,SE,138,10.0,-999.0,53,0.00,,,0.00,0,WeatherHawk,2013-03-18 12:59:00,
2013-03-18 06:03:00,59.7,42.6,29.86,SE,127,11.0,0.0,53,0.00,,,0.00,0,WeatherHawk,2013-03-18 13:03:00,
2013-03-18 06:04:00,59.7,42.6,29.86,SE,131,11.0,0.0,53,0.00,,,0.00,0,WeatherHawk,2013-03-18 13:04:00,
2013-03-18 06:09:00,59.7,42.6,29.86,SE,138,11.0,0.0,53,0.00,,,0.00,1,WeatherHawk,2013-03-18 13:09:00,
2013-03-18 06:14:00,59.5,42.9,29.86,SE,136,9.0,0.0,54,0.00,,,0.00,1,WeatherHawk,2013-03-18 13:14:00,
2013-03-18 06:15:00,59.4,42.7,29.86,SE,135,12.0,0.0,54,0.00,,,0.00,0,WeatherHawk,2013-03-18 13:15:00,
2013-03-18 06:17:00,59.5,42.9,29.86,SE,133,10.0,0.0,54,0.00,,,0.00,0,WeatherHawk,2013-03-18 13:17:00,
2013-03-18 06:19:00,59.5,42.9,29.86,SE,133,12.0,0.0,54,0.00,,,0.00,0,WeatherHawk,2013-03-18 13:19:00,
2013-03-18 06:20:00,59.5,42.9,29.86,SE,129,12.0,15.0,54,0.00,,,0.00,0,WeatherHawk,2013-03-18 13:20:00,
2013-03-18 06:23:00,59.4,43.2,29.86,SE,132,11.0,15.0,55,0.00,,,0.00,0,WeatherHawk,2013-03-18 13:23:00,
2013-03-18 06:24:00,59.4,43.2,29.86,SE,132,11.0,-999.0,55,0.00,,,0.00,0,WeatherHawk,2013-03-18 13:24:00,
2013-03-18 06:28:00,59.4,43.2,29.86,SE,132,12.0,15.0,55,0.00,,,0.00,0,WeatherHawk,2013-03-18 13:28:00,
2013-03-18 06:29:00,59.4,43.2,29.86,SE,132,12.0,15.0,55,0.00,,,0.00,0,WeatherHawk,2013-03-18 13:29:00,
2013-03-18 06:31:00,59.4,43.2,29.87,SE,130,10.0,13.0,55,0.00,,,0.00,1,WeatherHawk,2013-03-18 13:31:00,
2013-03-18 06:34:00,59.2,43.0,29.87,SE,128,11.0,13.0,55,0.00,,,0.00,0,WeatherHawk,2013-03-18 13:34:00,
2013-03-18 06:37:00,59.2,43.0,29.87,SE,132,12.0,13.0,55,0.00,,,0.00,1,WeatherHawk,2013-03-18 13:37:00,
2013-03-18 06:39:00,59.2,43.0,29.87,SE,132,12.0,13.0,55,0.00,,,0.00,1,WeatherHawk,2013-03-18 13:39:00,
2013-03-18 06:42:00,59.2,43.0,29.87,SE,131,10.0,0.0,55,0.00,,,0.00,2,WeatherHawk,2013-03-18 13:42:00,
2013-03-18 06:44:00,59.2,43.0,29.87,SE,130,9.0,0.0,55,0.00,,,0.00,0,WeatherHawk,2013-03-18 13:44:00,
2013-03-18 06:47:00,59.2,43.0,29.87,SE,131,12.0,0.0,55,0.00,,,0.00,6,WeatherHawk,2013-03-18 13:47:00,
2013-03-18 06:49:00,59.2,43.0,29.87,SE,128,11.0,0.0,55,0.00,,,0.00,5,WeatherHawk,2013-03-18 13:49:00,
2013-03-18 06:52:00,59.4,43.2,29.87,SE,133,12.0,12.0,55,0.00,,,0.00,8,WeatherHawk,2013-03-18 13:52:00,
2013-03-18 06:54:00,59.4,43.2,29.87,SE,137,10.0,-999.0,55,0.00,,,0.00,11,WeatherHawk,2013-03-18 13:54:00,
2013-03-18 06:59:00,59.4,43.2,29.87,SE,132,9.0,12.0,55,0.00,,,0.00,25,WeatherHawk,2013-03-18 13:59:00,
2013-03-18 07:00:00,59.2,43.0,29.88,SE,126,9.0,0.0,55,0.00,,,0.00,27,WeatherHawk,2013-03-18 14:00:00,
2013-03-18 07:01:00,59.2,43.0,29.88,SE,131,9.0,0.0,55,0.00,,,0.00,30,WeatherHawk,2013-03-18 14:01:00,
2013-03-18 07:03:00,59.2,43.0,29.88,SE,133,11.0,0.0,55,0.00,,,0.00,33,WeatherHawk,2013-03-18 14:03:00,
2013-03-18 07:08:00,59.5,42.9,29.88,SE,133,8.0,0.0,54,0.00,,,0.00,48,WeatherHawk,2013-03-18 14:08:00,
2013-03-18 07:09:00,59.5,42.9,29.88,SE,133,8.0,0.0,54,0.00,,,0.00,48,WeatherHawk,2013-03-18 14:09:00,
2013-03-18 07:12:00,59.5,42.4,29.88,SE,126,11.0,0.0,53,0.00,,,0.00,49,WeatherHawk,2013-03-18 14:12:00,
2013-03-18 07:13:00,59.7,42.6,29.88,SE,128,9.0,0.0,53,0.00,,,0.00,50,WeatherHawk,2013-03-18 14:13:00,
2013-03-18 07:14:00,59.7,42.6,29.88,SE,128,9.0,-999.0,53,0.00,,,0.00,50,WeatherHawk,2013-03-18 14:14:00,
2013-03-18 07:18:00,60.1,42.4,29.89,SE,131,11.0,0.0,52,0.00,,,0.00,74,WeatherHawk,2013-03-18 14:18:00,
2013-03-18 07:19:00,60.1,42.4,29.89,SE,132,9.0,0.0,52,0.00,,,0.00,71,WeatherHawk,2013-03-18 14:19:00,
2013-03-18 07:24:00,60.4,42.2,29.89,SE,128,11.0,0.0,51,0.00,,,0.00,83,WeatherHawk,2013-03-18 14:24:00,
2013-03-18 07:28:00,60.8,42.0,29.89,SE,137,9.0,0.0,50,0.00,,,0.00,105,WeatherHawk,2013-03-18 14:28:00,
2013-03-18 07:29:00,60.8,42.0,29.89,SE,140,8.0,-999.0,50,0.00,,,0.00,106,WeatherHawk,2013-03-18 14:29:00,
2013-03-18 07:34:00,61.2,41.8,29.90,SE,136,8.0,-999.0,49,0.00,,,0.00,133,WeatherHawk,2013-03-18 14:34:00,
2013-03-18 07:35:00,61.2,41.8,29.90,SE,140,9.0,0.0,49,0.00,,,0.00,140,WeatherHawk,2013-03-18 14:35:00,
2013-03-18 07:39:00,61.3,42.0,29.90,SE,142,10.0,-999.0,49,0.00,,,0.00,150,WeatherHawk,2013-03-18 14:39:00,
2013-03-18 07:44:00,61.5,42.2,29.90,SSE,148,7.0,0.0,49,0.00,,,0.00,169,WeatherHawk,2013-03-18 14:44:00,
2013-03-18 07:47:00,61.9,42.0,29.91,SE,140,6.0,0.0,48,0.00,,,0.00,186,WeatherHawk,2013-03-18 14:47:00,
2013-03-18 07:49:00,61.9,42.0,29.91,SSE,151,7.0,0.0,48,0.00,,,0.00,190,WeatherHawk,2013-03-18 14:49:00,
2013-03-18 07:54:00,62.2,42.3,29.91,SSE,153,7.0,0.0,48,0.00,,,0.00,206,WeatherHawk,2013-03-18 14:54:00,
2013-03-18 07:55:00,62.2,42.3,29.91,South,175,6.0,0.0,48,0.00,,,0.00,216,WeatherHawk,2013-03-18 14:55:00,
2013-03-18 07:57:00,62.4,42.5,29.91,SSE,167,4.0,0.0,48,0.00,,,0.00,180,WeatherHawk,2013-03-18 14:57:00,
2013-03-18 07:59:00,62.4,42.5,29.91,SSW,204,4.0,0.0,48,0.00,,,0.00,153,WeatherHawk,2013-03-18 14:59:00,
2013-03-18 08:02:00,62.6,42.6,29.91,South,170,1.0,9.0,48,0.00,,,0.00,236,WeatherHawk,2013-03-18 15:02:00,
2013-03-18 08:04:00,62.8,42.8,29.91,NW,325,0.0,9.0,48,0.00,,,0.00,240,WeatherHawk,2013-03-18 15:04:00,
2013-03-18 08:08:00,63.5,42.9,29.91,ESE,118,2.0,9.0,47,0.00,,,0.00,258,WeatherHawk,2013-03-18 15:08:00,
2013-03-18 08:09:00,63.5,42.9,29.91,ESE,118,2.0,-999.0,47,0.00,,,0.00,258,WeatherHawk,2013-03-18 15:09:00,
2013-03-18 08:10:00,63.7,42.5,29.91,East,90,4.0,0.0,46,0.00,,,0.00,265,WeatherHawk,2013-03-18 15:10:00,
2013-03-18 08:13:00,63.7,42.5,29.91,ESE,108,5.0,0.0,46,0.00,,,0.00,278,WeatherHawk,2013-03-18 15:13:00,
2013-03-18 08:14:00,63.7,42.5,29.91,ESE,108,5.0,-999.0,46,0.00,,,0.00,278,WeatherHawk,2013-03-18 15:14:00,
2013-03-18 08:17:00,63.9,43.2,29.91,ESE,111,9.0,0.0,47,0.00,,,0.00,294,WeatherHawk,2013-03-18 15:17:00,
2013-03-18 08:19:00,63.9,43.2,29.91,ESE,105,8.0,-999.0,47,0.00,,,0.00,296,WeatherHawk,2013-03-18 15:19:00,
2013-03-18 08:21:00,64.0,43.4,29.92,ESE,113,5.0,0.0,47,0.00,,,0.00,308,WeatherHawk,2013-03-18 15:21:00,
2013-03-18 08:23:00,64.2,43.6,29.92,ESE,112,6.0,0.0,47,0.00,,,0.00,316,WeatherHawk,2013-03-18 15:23:00,
2013-03-18 08:24:00,64.2,43.6,29.92,ESE,115,6.0,0.0,47,0.00,,,0.00,319,WeatherHawk,2013-03-18 15:24:00,
2013-03-18 08:27:00,64.6,44.4,29.92,SE,126,8.0,0.0,48,0.00,,,0.00,329,WeatherHawk,2013-03-18 15:27:00,
2013-03-18 08:29:00,64.6,44.4,29.92,ESE,118,7.0,-999.0,48,0.00,,,0.00,336,WeatherHawk,2013-03-18 15:29:00,
2013-03-18 08:34:00,65.1,44.9,29.93,SE,134,6.0,0.0,48,0.00,,,0.00,356,WeatherHawk,2013-03-18 15:34:00,
2013-03-18 08:39:00,65.5,45.8,29.93,South,169,7.0,-999.0,49,0.00,,,0.00,374,WeatherHawk,2013-03-18 15:39:00,
2013-03-18 08:40:00,65.7,45.4,29.94,SSE,164,4.0,0.0,48,0.00,,,0.00,380,WeatherHawk,2013-03-18 15:40:00,
2013-03-18 08:42:00,65.8,46.1,29.94,South,171,6.0,0.0,49,0.00,,,0.00,389,WeatherHawk,2013-03-18 15:42:00,
2013-03-18 08:44:00,65.8,46.1,29.94,South,176,7.0,-999.0,49,0.00,,,0.00,392,WeatherHawk,2013-03-18 15:44:00,
2013-03-18 08:49:00,66.2,46.5,29.94,South,189,6.0,-999.0,49,0.00,,,0.00,411,WeatherHawk,2013-03-18 15:49:00,
2013-03-18 08:51:00,66.4,47.2,29.94,SSE,163,6.0,9.0,50,0.00,,,0.00,423,WeatherHawk,2013-03-18 15:51:00,
2013-03-18 08:54:00,66.9,47.1,29.94,South,180,9.0,9.0,49,0.00,,,0.00,438,WeatherHawk,2013-03-18 15:54:00,
2013-03-18 08:55:00,66.9,47.1,29.94,SSE,147,8.0,9.0,49,0.00,,,0.00,439,WeatherHawk,2013-03-18 15:55:00,
2013-03-18 08:59:00,67.1,47.3,29.94,SSE,156,8.0,-999.0,49,0.00,,,0.00,451,WeatherHawk,2013-03-18 15:59:00,
2013-03-18 09:00:00,67.3,47.5,29.95,ESE,123,7.0,0.0,49,0.00,,,0.00,457,WeatherHawk,2013-03-18 16:00:00,
2013-03-18 09:03:00,67.3,47.5,29.95,SSE,156,7.0,0.0,49,0.00,,,0.00,469,WeatherHawk,2013-03-18 16:03:00,
2013-03-18 09:04:00,67.3,47.5,29.95,SSE,156,7.0,0.0,49,0.00,,,0.00,469,WeatherHawk,2013-03-18 16:04:00,
2013-03-18 09:09:00,67.5,47.6,29.95,SSE,160,4.0,0.0,49,0.00,,,0.00,488,WeatherHawk,2013-03-18 16:09:00,
2013-03-18 09:13:00,68.0,47.6,29.95,South,185,7.0,0.0,48,0.00,,,0.00,506,WeatherHawk,2013-03-18 16:13:00,
2013-03-18 09:14:00,68.2,47.7,29.95,SSE,165,5.0,0.0,48,0.00,,,0.00,512,WeatherHawk,2013-03-18 16:14:00,
2013-03-18 09:18:00,68.4,47.9,29.95,SE,140,7.0,0.0,48,0.00,,,0.00,524,WeatherHawk,2013-03-18 16:18:00,
2013-03-18 09:19:00,68.4,47.9,29.95,SE,140,7.0,-999.0,48,0.00,,,0.00,524,WeatherHawk,2013-03-18 16:19:00,
2013-03-18 09:24:00,68.7,48.2,29.95,South,174,7.0,8.0,48,0.00,,,0.00,542,WeatherHawk,2013-03-18 16:24:00,
2013-03-18 09:25:00,69.1,48.0,29.95,South,182,5.0,8.0,47,0.00,,,0.00,549,WeatherHawk,2013-03-18 16:25:00,
2013-03-18 09:26:00,69.3,48.2,29.95,South,181,9.0,9.0,47,0.00,,,0.00,553,WeatherHawk,2013-03-18 16:26:00,
2013-03-18 09:29:00,69.4,48.3,29.95,SSW,196,6.0,8.0,47,0.00,,,0.00,558,WeatherHawk,2013-03-18 16:29:00,
2013-03-18 09:30:00,69.8,48.1,29.95,SSW,200,8.0,0.0,46,0.00,,,0.00,566,WeatherHawk,2013-03-18 16:30:00,
2013-03-18 09:33:00,69.8,48.1,29.95,South,181,9.0,0.0,46,0.00,,,0.00,578,WeatherHawk,2013-03-18 16:33:00,
2013-03-18 09:34:00,69.8,48.1,29.95,South,181,9.0,-999.0,46,0.00,,,0.00,578,WeatherHawk,2013-03-18 16:34:00,
2013-03-18 09:35:00,70.0,48.2,29.95,South,186,5.0,0.0,46,0.00,,,0.00,586,WeatherHawk,2013-03-18 16:35:00,
2013-03-18 09:39:00,70.5,48.1,29.95,South,181,5.0,0.0,45,0.00,,,0.00,599,WeatherHawk,2013-03-18 16:39:00,
2013-03-18 09:40:00,70.5,48.1,29.95,SSW,198,7.0,9.0,45,0.00,,,0.00,598,WeatherHawk,2013-03-18 16:40:00,
2013-03-18 09:43:00,70.9,47.9,29.95,South,182,8.0,9.0,44,0.00,,,0.00,608,WeatherHawk,2013-03-18 16:43:00,
2013-03-18 09:45:00,70.7,48.3,29.95,SSW,198,8.0,9.0,45,0.00,,,0.00,620,WeatherHawk,2013-03-18 16:45:00,
2013-03-18 09:47:00,70.7,48.3,29.95,SSW,197,7.0,9.0,45,0.00,,,0.00,628,WeatherHawk,2013-03-18 16:47:00,
2013-03-18 09:49:00,70.7,48.3,29.95,SSW,202,7.0,-999.0,45,0.00,,,0.00,630,WeatherHawk,2013-03-18 16:49:00,
2013-03-18 09:51:00,71.1,48.0,29.95,South,171,7.0,0.0,44,0.00,,,0.00,643,WeatherHawk,2013-03-18 16:51:00,
2013-03-18 09:52:00,71.1,48.0,29.96,South,172,5.0,0.0,44,0.00,,,0.00,647,WeatherHawk,2013-03-18 16:52:00,
2013-03-18 09:53:00,71.1,47.4,29.95,SSE,168,10.0,0.0,43,0.00,,,0.00,649,WeatherHawk,2013-03-18 16:53:00,
2013-03-18 09:54:00,71.1,47.4,29.95,SSE,168,10.0,0.0,43,0.00,,,0.00,649,WeatherHawk,2013-03-18 16:54:00,
2013-03-18 09:59:00,71.4,47.7,29.96,SSE,163,7.0,-999.0,43,0.00,,,0.00,628,WeatherHawk,2013-03-18 16:59:00,
2013-03-18 10:00:00,71.8,47.4,29.96,SSE,164,7.0,0.0,42,0.00,,,0.00,677,WeatherHawk,2013-03-18 17:00:00,
2013-03-18 10:04:00,72.1,47.1,29.96,South,175,6.0,0.0,41,0.00,,,0.00,627,WeatherHawk,2013-03-18 17:04:00,
2013-03-18 10:06:00,72.1,47.1,29.96,South,183,6.0,0.0,41,0.00,,,0.00,623,WeatherHawk,2013-03-18 17:06:00,
2013-03-18 10:09:00,72.0,47.6,29.96,South,179,5.0,-999.0,42,0.00,,,0.00,699,WeatherHawk,2013-03-18 17:09:00,
2013-03-18 10:11:00,72.1,47.1,29.96,SE,138,6.0,0.0,41,0.00,,,0.00,701,WeatherHawk,2013-03-18 17:11:00,
2013-03-18 10:12:00,72.0,47.0,29.96,ESE,115,5.0,0.0,41,0.00,,,0.00,704,WeatherHawk,2013-03-18 17:12:00,
2013-03-18 10:14:00,72.1,47.1,29.96,ESE,107,4.0,-999.0,41,0.00,,,0.00,707,WeatherHawk,2013-03-18 17:14:00,
2013-03-18 10:18:00,72.9,46.4,29.96,SE,131,7.0,0.0,39,0.00,,,0.00,722,WeatherHawk,2013-03-18 17:18:00,
2013-03-18 10:19:00,72.9,46.4,29.96,SE,131,7.0,0.0,39,0.00,,,0.00,722,WeatherHawk,2013-03-18 17:19:00,
2013-03-18 10:21:00,72.9,46.4,29.96,SE,137,8.0,0.0,39,0.00,,,0.00,730,WeatherHawk,2013-03-18 17:21:00,
2013-03-18 10:22:00,72.9,46.4,29.96,SSE,160,6.0,0.0,39,0.00,,,0.00,728,WeatherHawk,2013-03-18 17:22:00,
2013-03-18 10:24:00,72.7,46.3,29.96,SE,144,3.0,-999.0,39,0.00,,,0.00,737,WeatherHawk,2013-03-18 17:24:00,
2013-03-18 10:29:00,73.0,46.6,29.96,South,177,3.0,0.0,39,0.00,,,0.00,749,WeatherHawk,2013-03-18 17:29:00,
2013-03-18 10:30:00,73.0,46.6,29.96,South,179,4.0,0.0,39,0.00,,,0.00,753,WeatherHawk,2013-03-18 17:30:00,
2013-03-18 10:35:00,73.4,46.2,29.95,South,182,6.0,0.0,38,0.00,,,0.00,768,WeatherHawk,2013-03-18 17:35:00,
2013-03-18 10:37:00,73.6,46.4,29.95,SSE,156,7.0,0.0,38,0.00,,,0.00,772,WeatherHawk,2013-03-18 17:37:00,
2013-03-18 10:40:00,74.3,45.6,29.95,South,190,8.0,0.0,36,0.00,,,0.00,782,WeatherHawk,2013-03-18 17:40:00,
2013-03-18 10:42:00,74.7,45.9,29.95,South,183,10.0,11.0,36,0.00,,,0.00,787,WeatherHawk,2013-03-18 17:42:00,
2013-03-18 10:43:00,74.8,46.1,29.95,South,182,12.0,12.0,36,0.00,,,0.00,788,WeatherHawk,2013-03-18 17:43:00,
2013-03-18 10:47:00,74.5,45.8,29.95,SSE,164,11.0,11.0,36,0.00,,,0.00,799,WeatherHawk,2013-03-18 17:47:00,
2013-03-18 10:48:00,74.3,45.6,29.95,South,178,10.0,-999.0,36,0.00,,,0.00,797,WeatherHawk,2013-03-18 17:48:00,
2013-03-18 10:49:00,74.3,45.6,29.95,South,178,10.0,11.0,36,0.00,,,0.00,797,WeatherHawk,2013-03-18 17:49:00,
2013-03-18 10:53:00,74.1,46.2,29.95,South,186,13.0,14.0,37,0.00,,,0.00,809,WeatherHawk,2013-03-18 17:53:00,
2013-03-18 10:54:00,74.1,46.9,29.95,South,181,12.0,14.0,38,0.00,,,0.00,814,WeatherHawk,2013-03-18 17:54:00,
2013-03-18 10:55:00,74.1,46.9,29.95,South,181,12.0,14.0,38,0.00,,,0.00,814,WeatherHawk,2013-03-18 17:55:00,
2013-03-18 10:59:00,73.9,46.0,29.95,South,183,12.0,14.0,37,0.00,,,0.00,823,WeatherHawk,2013-03-18 17:59:00,
2013-03-18 11:00:00,73.9,46.0,29.95,South,183,12.0,14.0,37,0.00,,,0.00,823,WeatherHawk,2013-03-18 18:00:00,
2013-03-18 11:04:00,74.1,46.9,29.96,South,178,9.0,14.0,38,0.00,,,0.00,834,WeatherHawk,2013-03-18 18:04:00,
2013-03-18 11:08:00,74.5,46.5,29.96,SSW,201,11.0,14.0,37,0.00,,,0.00,842,WeatherHawk,2013-03-18 18:08:00,
2013-03-18 11:10:00,74.5,47.2,29.95,South,183,9.0,14.0,38,0.00,,,0.00,845,WeatherHawk,2013-03-18 18:10:00,
2013-03-18 11:15:00,75.6,46.7,29.95,South,173,12.0,14.0,36,0.00,,,0.00,859,WeatherHawk,2013-03-18 18:15:00,
2013-03-18 11:16:00,75.0,47.0,29.95,SSW,197,6.0,14.0,37,0.00,,,0.00,861,WeatherHawk,2013-03-18 18:16:00,
2013-03-18 11:20:00,75.6,47.4,29.95,SW,225,6.0,-999.0,37,0.00,,,0.00,864,WeatherHawk,2013-03-18 18:20:00,
2013-03-18 11:22:00,75.7,45.4,29.96,SSW,200,11.0,14.0,34,0.00,,,0.00,873,WeatherHawk,2013-03-18 18:22:00,
2013-03-18 11:24:00,75.4,45.8,29.96,South,176,7.0,14.0,35,0.00,,,0.00,875,WeatherHawk,2013-03-18 18:24:00,
2013-03-18 11:25:00,75.4,45.8,29.96,South,176,7.0,14.0,35,0.00,,,0.00,875,WeatherHawk,2013-03-18 18:25:00,
2013-03-18 11:30:00,75.4,45.8,29.96,SSW,208,9.0,14.0,35,0.00,,,0.00,882,WeatherHawk,2013-03-18 18:30:00,
2013-03-18 11:31:00,75.4,44.3,29.96,SW,220,9.0,13.0,33,0.00,,,0.00,885,WeatherHawk,2013-03-18 18:31:00,
2013-03-18 11:36:00,75.7,44.6,29.95,South,189,12.0,13.0,33,0.00,,,0.00,896,WeatherHawk,2013-03-18 18:36:00,
2013-03-18 11:37:00,75.7,44.6,29.95,South,184,10.0,13.0,33,0.00,,,0.00,895,WeatherHawk,2013-03-18 18:37:00,
2013-03-18 11:39:00,75.9,43.9,29.95,SSW,197,7.0,13.0,32,0.00,,,0.00,903,WeatherHawk,2013-03-18 18:39:00,
2013-03-18 11:41:00,75.9,45.5,29.95,WSW,241,8.0,12.0,34,0.00,,,0.00,899,WeatherHawk,2013-03-18 18:41:00,
2013-03-18 11:42:00,76.1,44.9,29.95,SW,226,11.0,12.0,33,0.00,,,0.00,905,WeatherHawk,2013-03-18 18:42:00,
2013-03-18 11:44:00,75.7,45.4,29.95,SSW,202,3.0,12.0,34,0.00,,,0.00,908,WeatherHawk,2013-03-18 18:44:00,
2013-03-18 11:45:00,75.9,45.5,29.95,South,185,10.0,12.0,34,0.00,,,0.00,910,WeatherHawk,2013-03-18 18:45:00,
2013-03-18 11:48:00,76.1,45.7,29.95,SW,224,6.0,12.0,34,0.00,,,0.00,915,WeatherHawk,2013-03-18 18:48:00,
2013-03-18 11:50:00,76.5,44.4,29.95,SSW,201,10.0,0.0,32,0.00,,,0.00,910,WeatherHawk,2013-03-18 18:50:00,
2013-03-18 11:51:00,76.3,44.2,29.95,SW,221,5.0,11.0,32,0.00,,,0.00,918,WeatherHawk,2013-03-18 18:51:00,
2013-03-18 11:53:00,76.1,44.9,29.95,SSW,195,9.0,11.0,33,0.00,,,0.00,921,WeatherHawk,2013-03-18 18:53:00,
2013-03-18 11:56:00,76.3,44.2,29.94,SW,229,7.0,11.0,32,0.00,,,0.00,905,WeatherHawk,2013-03-18 18:56:00,
2013-03-18 11:57:00,76.3,44.2,29.94,SW,234,6.0,11.0,32,0.00,,,0.00,910,WeatherHawk,2013-03-18 18:57:00,
2013-03-18 11:59:00,76.3,43.4,29.94,SW,226,10.0,-999.0,31,0.00,,,0.00,940,WeatherHawk,2013-03-18 18:59:00,
2013-03-18 12:02:00,76.6,45.4,29.94,SW,219,8.0,11.0,33,0.00,,,0.00,923,WeatherHawk,2013-03-18 19:02:00,
2013-03-18 12:04:00,77.0,45.7,29.94,SW,216,9.0,-999.0,33,0.00,,,0.00,892,WeatherHawk,2013-03-18 19:04:00,
2013-03-18 12:08:00,76.8,44.7,29.94,West,262,9.0,11.0,32,0.00,,,0.00,866,WeatherHawk,2013-03-18 19:08:00,
2013-03-18 12:09:00,76.8,44.7,29.94,WSW,255,8.0,-999.0,32,0.00,,,0.00,858,WeatherHawk,2013-03-18 19:09:00,
2013-03-18 12:12:00,77.2,45.0,29.94,WSW,253,6.0,12.0,32,0.00,,,0.00,927,WeatherHawk,2013-03-18 19:12:00,
2013-03-18 12:13:00,77.2,45.0,29.94,WSW,249,7.0,12.0,32,0.00,,,0.00,933,WeatherHawk,2013-03-18 19:13:00,
2013-03-18 12:14:00,77.2,45.0,29.94,SW,232,7.0,12.0,32,0.00,,,0.00,911,WeatherHawk,2013-03-18 19:14:00,
2013-03-18 12:19:00,77.4,43.5,29.94,SSW,194,4.0,12.0,30,0.00,,,0.00,938,WeatherHawk,2013-03-18 19:19:00,
2013-03-18 12:20:00,77.5,43.6,29.94,SW,227,5.0,11.0,30,0.00,,,0.00,932,WeatherHawk,2013-03-18 19:20:00,
2013-03-18 12:23:00,77.7,44.7,29.94,WSW,250,7.0,11.0,31,0.00,,,0.00,942,WeatherHawk,2013-03-18 19:23:00,
2013-03-18 12:24:00,77.7,44.7,29.94,WSW,247,8.0,11.0,31,0.00,,,0.00,940,WeatherHawk,2013-03-18 19:24:00,
2013-03-18 12:27:00,77.9,43.9,29.94,SSW,211,6.0,11.0,30,0.00,,,0.00,941,WeatherHawk,2013-03-18 19:27:00,
2013-03-18 12:28:00,77.7,44.7,29.94,WSW,240,8.0,11.0,31,0.00,,,0.00,937,WeatherHawk,2013-03-18 19:28:00,
2013-03-18 12:29:00,77.7,43.8,29.94,SW,226,11.0,11.0,30,0.00,,,0.00,934,WeatherHawk,2013-03-18 19:29:00,
2013-03-18 12:33:00,78.1,45.0,29.94,West,262,11.0,12.0,31,0.00,,,0.00,940,WeatherHawk,2013-03-18 19:33:00,
2013-03-18 12:34:00,77.9,44.8,29.94,WSW,246,7.0,12.0,31,0.00,,,0.00,943,WeatherHawk,2013-03-18 19:34:00,
2013-03-18 12:38:00,78.3,43.4,29.94,SW,235,9.0,12.0,29,0.00,,,0.00,944,WeatherHawk,2013-03-18 19:38:00,
2013-03-18 12:39:00,78.3,44.3,29.94,SSW,207,7.0,-999.0,30,0.00,,,0.00,944,WeatherHawk,2013-03-18 19:39:00,
2013-03-18 12:40:00,78.1,44.1,29.94,SW,227,4.0,13.0,30,0.00,,,0.00,944,WeatherHawk,2013-03-18 19:40:00,
2013-03-18 12:44:00,77.9,43.1,29.94,WSW,239,9.0,13.0,29,0.00,,,0.00,942,WeatherHawk,2013-03-18 19:44:00,
2013-03-18 12:49:00,78.1,44.1,29.94,SW,227,9.0,13.0,30,0.00,,,0.00,949,WeatherHawk,2013-03-18 19:49:00,
2013-03-18 12:50:00,78.1,44.1,29.94,WSW,242,7.0,0.0,30,0.00,,,0.00,949,WeatherHawk,2013-03-18 19:50:00,
2013-03-18 12:51:00,78.3,45.1,29.94,WNW,286,6.0,11.0,31,0.00,,,0.00,946,WeatherHawk,2013-03-18 19:51:00,
2013-03-18 12:54:00,78.3,44.3,29.94,SW,228,4.0,11.0,30,0.00,,,0.00,949,WeatherHawk,2013-03-18 19:54:00,
2013-03-18 12:55:00,78.4,44.4,29.94,SW,224,3.0,11.0,30,0.00,,,0.00,938,WeatherHawk,2013-03-18 19:55:00,
2013-03-18 12:59:00,79.2,44.1,29.94,SW,228,10.0,11.0,29,0.00,,,0.00,942,WeatherHawk,2013-03-18 19:59:00,
2013-03-18 13:00:00,79.3,43.4,29.94,SW,219,5.0,0.0,28,0.00,,,0.00,948,WeatherHawk,2013-03-18 20:00:00,
2013-03-18 13:02:00,78.8,43.8,29.94,SW,231,6.0,12.0,29,0.00,,,0.00,950,WeatherHawk,2013-03-18 20:02:00,
2013-03-18 13:04:00,78.6,43.7,29.93,WSW,252,5.0,12.0,29,0.00,,,0.00,948,WeatherHawk,2013-03-18 20:04:00,
2013-03-18 13:07:00,78.6,44.6,29.93,WNW,282,4.0,12.0,30,0.00,,,0.00,942,WeatherHawk,2013-03-18 20:07:00,
2013-03-18 13:12:00,78.8,43.8,29.93,WNW,289,2.0,10.0,29,0.00,,,0.00,942,WeatherHawk,2013-03-18 20:12:00,
2013-03-18 13:14:00,79.0,44.0,29.93,NNW,342,2.0,10.0,29,0.00,,,0.00,936,WeatherHawk,2013-03-18 20:14:00,
2013-03-18 13:18:00,79.2,45.0,29.93,West,267,7.0,10.0,30,0.00,,,0.00,932,WeatherHawk,2013-03-18 20:18:00,
2013-03-18 13:19:00,79.2,45.0,29.93,WSW,241,6.0,-999.0,30,0.00,,,0.00,923,WeatherHawk,2013-03-18 20:19:00,
2013-03-18 13:20:00,79.2,45.0,29.92,WSW,257,6.0,0.0,30,0.00,,,0.00,931,WeatherHawk,2013-03-18 20:20:00,
2013-03-18 13:23:00,79.5,44.5,29.92,WSW,255,9.0,11.0,29,0.00,,,0.00,930,WeatherHawk,2013-03-18 20:23:00,
2013-03-18 13:24:00,79.5,44.5,29.92,WSW,244,8.0,11.0,29,0.00,,,0.00,929,WeatherHawk,2013-03-18 20:24:00,
2013-03-18 13:25:00,79.5,44.5,29.92,SW,235,8.0,11.0,29,0.00,,,0.00,932,WeatherHawk,2013-03-18 20:25:00,
2013-03-18 13:29:00,79.3,45.2,29.92,West,266,9.0,11.0,30,0.00,,,0.00,925,WeatherHawk,2013-03-18 20:29:00,
2013-03-18 13:30:00,79.3,43.4,29.92,WSW,250,7.0,0.0,28,0.00,,,0.00,927,WeatherHawk,2013-03-18 20:30:00,
2013-03-18 13:36:00,79.7,44.6,29.91,WNW,286,5.0,10.0,29,0.00,,,0.00,928,WeatherHawk,2013-03-18 20:36:00,
2013-03-18 13:39:00,79.7,43.7,29.91,WNW,289,8.0,10.0,28,0.00,,,0.00,926,WeatherHawk,2013-03-18 20:39:00,
2013-03-18 13:44:00,80.4,45.2,29.91,SW,214,4.0,9.0,29,0.00,,,0.00,909,WeatherHawk,2013-03-18 20:44:00,
2013-03-18 13:45:00,80.4,45.2,29.91,NNW,336,5.0,9.0,29,0.00,,,0.00,901,WeatherHawk,2013-03-18 20:45:00,
2013-03-18 13:49:00,80.8,44.6,29.91,SW,234,9.0,9.0,28,0.00,,,0.00,908,WeatherHawk,2013-03-18 20:49:00,
2013-03-18 13:53:00,80.6,44.5,29.91,WSW,239,8.0,12.0,28,0.00,,,0.00,869,WeatherHawk,2013-03-18 20:53:00,
2013-03-18 13:54:00,80.6,44.5,29.91,WSW,239,8.0,12.0,28,0.00,,,0.00,869,WeatherHawk,2013-03-18 20:54:00,
2013-03-18 13:57:00,80.4,43.4,29.91,West,273,6.0,12.0,27,0.00,,,0.00,899,WeatherHawk,2013-03-18 20:57:00,
2013-03-18 13:58:00,80.6,43.5,29.90,SW,218,9.0,12.0,27,0.00,,,0.00,904,WeatherHawk,2013-03-18 20:58:00,
2013-03-18 14:00:00,80.6,43.5,29.90,SW,221,5.0,10.0,27,0.00,,,0.00,902,WeatherHawk,2013-03-18 21:00:00,
2013-03-18 14:03:00,80.8,44.6,29.90,SW,236,4.0,10.0,28,0.00,,,0.00,888,WeatherHawk,2013-03-18 21:03:00,
2013-03-18 14:06:00,80.8,43.7,29.90,South,186,6.0,10.0,27,0.00,,,0.00,880,WeatherHawk,2013-03-18 21:06:00,
2013-03-18 14:08:00,80.8,43.7,29.90,WSW,255,6.0,10.0,27,0.00,,,0.00,881,WeatherHawk,2013-03-18 21:08:00,
2013-03-18 14:09:00,80.8,43.7,29.90,SSW,198,6.0,10.0,27,0.00,,,0.00,881,WeatherHawk,2013-03-18 21:09:00,
2013-03-18 14:13:00,80.4,43.4,29.90,SE,143,4.0,9.0,27,0.00,,,0.00,858,WeatherHawk,2013-03-18 21:13:00,
2013-03-18 14:14:00,80.4,43.4,29.90,SW,219,7.0,9.0,27,0.00,,,0.00,849,WeatherHawk,2013-03-18 21:14:00,
2013-03-18 14:19:00,80.6,43.5,29.89,SW,220,9.0,9.0,27,0.00,,,0.00,857,WeatherHawk,2013-03-18 21:19:00,
2013-03-18 14:21:00,81.0,43.8,29.89,West,281,8.0,12.0,27,0.00,,,0.00,838,WeatherHawk,2013-03-18 21:21:00,
2013-03-18 14:24:00,81.3,43.1,29.89,West,265,5.0,12.0,26,0.00,,,0.00,831,WeatherHawk,2013-03-18 21:24:00,
2013-03-18 14:27:00,81.7,42.4,29.89,WSW,248,5.0,12.0,25,0.00,,,0.00,841,WeatherHawk,2013-03-18 21:27:00,
2013-03-18 14:29:00,81.5,43.3,29.89,West,274,5.0,-999.0,26,0.00,,,0.00,821,WeatherHawk,2013-03-18 21:29:00,
2013-03-18 14:31:00,81.9,42.6,29.89,West,263,6.0,10.0,25,0.00,,,0.00,863,WeatherHawk,2013-03-18 21:31:00,
2013-03-18 14:34:00,82.2,41.8,29.89,West,271,4.0,10.0,24,0.00,,,0.00,865,WeatherHawk,2013-03-18 21:34:00,
2013-03-18 14:39:00,81.9,42.6,29.89,West,270,5.0,-999.0,25,0.00,,,0.00,781,WeatherHawk,2013-03-18 21:39:00,
2013-03-18 14:41:00,82.0,42.7,29.89,SSW,213,4.0,8.0,25,0.00,,,0.00,827,WeatherHawk,2013-03-18 21:41:00,
2013-03-18 14:45:00,82.2,41.8,29.88,SW,217,8.0,8.0,24,0.00,,,0.00,827,WeatherHawk,2013-03-18 21:45:00,
2013-03-18 14:48:00,81.5,41.2,29.88,SSW,198,5.0,8.0,24,0.00,,,0.00,762,WeatherHawk,2013-03-18 21:48:00,
2013-03-18 14:49:00,81.5,41.2,29.88,SW,234,3.0,8.0,24,0.00,,,0.00,810,WeatherHawk,2013-03-18 21:49:00,
2013-03-18 14:51:00,82.0,41.7,29.88,SW,231,9.0,9.0,24,0.00,,,0.00,801,WeatherHawk,2013-03-18 21:51:00,
2013-03-18 14:54:00,81.7,41.4,29.88,WSW,251,8.0,9.0,24,0.00,,,0.00,794,WeatherHawk,2013-03-18 21:54:00,
2013-03-18 14:57:00,81.9,41.5,29.88,WSW,241,1.0,9.0,24,0.00,,,0.00,787,WeatherHawk,2013-03-18 21:57:00,
2013-03-18 15:03:00,82.6,42.1,29.88,WSW,254,11.0,11.0,24,0.00,,,0.00,777,WeatherHawk,2013-03-18 22:03:00,
2013-03-18 15:04:00,82.4,42.0,29.88,WSW,250,11.0,11.0,24,0.00,,,0.00,774,WeatherHawk,2013-03-18 22:04:00,
2013-03-18 15:09:00,81.9,41.5,29.88,NW,317,3.0,10.0,24,0.00,,,0.00,759,WeatherHawk,2013-03-18 22:09:00,
2013-03-18 15:11:00,82.0,41.7,29.88,WSW,247,5.0,12.0,24,0.00,,,0.00,711,WeatherHawk,2013-03-18 22:11:00,
2013-03-18 15:14:00,81.7,40.3,29.88,SW,225,5.0,-999.0,23,0.00,,,0.00,723,WeatherHawk,2013-03-18 22:14:00,
2013-03-18 15:16:00,81.9,40.4,29.88,WSW,243,6.0,12.0,23,0.00,,,0.00,712,WeatherHawk,2013-03-18 22:16:00,
2013-03-18 15:18:00,82.0,40.6,29.88,WSW,253,8.0,12.0,23,0.00,,,0.00,728,WeatherHawk,2013-03-18 22:18:00,
2013-03-18 15:19:00,82.0,40.6,29.88,West,272,4.0,0.0,23,0.00,,,0.00,718,WeatherHawk,2013-03-18 22:19:00,
2013-03-18 15:21:00,82.0,40.6,29.88,WSW,257,5.0,10.0,23,0.00,,,0.00,717,WeatherHawk,2013-03-18 22:21:00,
2013-03-18 15:24:00,82.4,40.9,29.88,WSW,254,7.0,10.0,23,0.00,,,0.00,710,WeatherHawk,2013-03-18 22:24:00,
2013-03-18 15:28:00,82.2,40.7,29.87,SW,236,6.0,10.0,23,0.00,,,0.00,699,WeatherHawk,2013-03-18 22:28:00,
2013-03-18 15:29:00,82.2,40.7,29.87,SW,236,6.0,10.0,23,0.00,,,0.00,699,WeatherHawk,2013-03-18 22:29:00,
2013-03-18 15:31:00,82.4,40.9,29.87,West,274,7.0,11.0,23,0.00,,,0.00,695,WeatherHawk,2013-03-18 22:31:00,
2013-03-18 15:33:00,82.8,40.0,29.87,WSW,255,9.0,11.0,22,0.00,,,0.00,685,WeatherHawk,2013-03-18 22:33:00,
2013-03-18 15:34:00,82.8,40.0,29.87,WSW,242,11.0,11.0,22,0.00,,,0.00,685,WeatherHawk,2013-03-18 22:34:00,
2013-03-18 15:37:00,82.4,39.7,29.87,WSW,257,7.0,11.0,22,0.00,,,0.00,677,WeatherHawk,2013-03-18 22:37:00,
2013-03-18 15:39:00,82.2,39.6,29.87,SW,224,5.0,-999.0,22,0.00,,,0.00,666,WeatherHawk,2013-03-18 22:39:00,
2013-03-18 15:41:00,82.2,37.1,29.88,West,273,6.0,11.0,20,0.00,,,0.00,662,WeatherHawk,2013-03-18 22:41:00,
2013-03-18 15:44:00,82.4,37.3,29.88,SW,232,5.0,11.0,20,0.00,,,0.00,649,WeatherHawk,2013-03-18 22:44:00,
2013-03-18 15:46:00,82.4,37.3,29.88,West,270,6.0,11.0,20,0.00,,,0.00,640,WeatherHawk,2013-03-18 22:46:00,
2013-03-18 15:49:00,82.6,38.7,29.87,West,275,6.0,11.0,21,0.00,,,0.00,629,WeatherHawk,2013-03-18 22:49:00,
2013-03-18 15:51:00,82.8,37.6,29.87,WNW,284,5.0,10.0,20,0.00,,,0.00,615,WeatherHawk,2013-03-18 22:51:00,
2013-03-18 15:52:00,82.8,37.6,29.87,West,278,4.0,10.0,20,0.00,,,0.00,612,WeatherHawk,2013-03-18 22:52:00,
2013-03-18 15:56:00,82.6,39.9,29.87,West,275,9.0,10.0,22,0.00,,,0.00,604,WeatherHawk,2013-03-18 22:56:00,
2013-03-18 15:58:00,83.1,39.1,29.87,West,269,8.0,10.0,21,0.00,,,0.00,582,WeatherHawk,2013-03-18 22:58:00,
2013-03-18 15:59:00,83.1,37.9,29.87,West,276,7.0,10.0,20,0.00,,,0.00,581,WeatherHawk,2013-03-18 22:59:00,
2013-03-18 16:03:00,82.6,38.7,29.87,West,270,7.0,11.0,21,0.00,,,0.00,585,WeatherHawk,2013-03-18 23:03:00,
2013-03-18 16:04:00,82.6,38.7,29.87,WSW,240,7.0,-999.0,21,0.00,,,0.00,580,WeatherHawk,2013-03-18 23:04:00,
2013-03-18 16:08:00,82.9,40.2,29.87,West,272,10.0,11.0,22,0.00,,,0.00,490,WeatherHawk,2013-03-18 23:08:00,
2013-03-18 16:09:00,82.9,40.2,29.87,West,272,10.0,11.0,22,0.00,,,0.00,490,WeatherHawk,2013-03-18 23:09:00,
2013-03-18 16:14:00,82.4,38.5,29.87,West,266,5.0,14.0,21,0.00,,,0.00,503,WeatherHawk,2013-03-18 23:14:00,
2013-03-18 16:16:00,82.6,37.4,29.87,WNW,287,9.0,14.0,20,0.00,,,0.00,435,WeatherHawk,2013-03-18 23:16:00,
2013-03-18 16:19:00,82.4,37.3,29.87,West,270,5.0,14.0,20,0.00,,,0.00,436,WeatherHawk,2013-03-18 23:19:00,
2013-03-18 16:24:00,82.6,39.9,29.87,West,278,7.0,0.0,22,0.00,,,0.00,384,WeatherHawk,2013-03-18 23:24:00,
2013-03-18 16:25:00,82.4,40.9,29.87,West,265,4.0,0.0,23,0.00,,,0.00,433,WeatherHawk,2013-03-18 23:25:00,
2013-03-18 16:29:00,82.6,34.8,29.87,WSW,254,10.0,-999.0,18,0.00,,,0.00,327,WeatherHawk,2013-03-18 23:29:00,
2013-03-18 16:32:00,82.6,34.8,29.87,SW,233,7.0,0.0,18,0.00,,,0.00,378,WeatherHawk,2013-03-18 23:32:00,
2013-03-18 16:34:00,82.6,36.1,29.87,SW,236,9.0,0.0,19,0.00,,,0.00,439,WeatherHawk,2013-03-18 23:34:00,
2013-03-18 16:35:00,82.8,36.3,29.87,WSW,253,10.0,0.0,19,0.00,,,0.00,441,WeatherHawk,2013-03-18 23:35:00,
2013-03-18 16:37:00,82.6,31.8,29.87,WSW,237,7.0,0.0,16,0.00,,,0.00,363,WeatherHawk,2013-03-18 23:37:00,
2013-03-18 16:39:00,82.6,33.3,29.87,WSW,243,5.0,-999.0,17,0.00,,,0.00,331,WeatherHawk,2013-03-18 23:39:00,
2013-03-18 16:41:00,82.8,40.0,29.87,WSW,257,6.0,10.0,22,0.00,,,0.00,306,WeatherHawk,2013-03-18 23:41:00,
2013-03-18 16:43:00,82.6,38.7,29.87,SW,219,6.0,10.0,21,0.00,,,0.00,249,WeatherHawk,2013-03-18 23:43:00,
2013-03-18 16:44:00,82.6,38.7,29.87,SW,219,6.0,10.0,21,0.00,,,0.00,249,WeatherHawk,2013-03-18 23:44:00,
2013-03-18 16:47:00,82.0,40.6,29.87,West,260,7.0,10.0,23,0.00,,,0.00,263,WeatherHawk,2013-03-18 23:47:00,
2013-03-18 16:49:00,81.9,41.5,29.87,West,272,9.0,-999.0,24,0.00,,,0.00,286,WeatherHawk,2013-03-18 23:49:00,
2013-03-18 16:52:00,81.7,41.4,29.87,West,261,8.0,0.0,24,0.00,,,0.00,228,WeatherHawk,2013-03-18 23:52:00,
2013-03-18 16:54:00,81.7,41.4,29.87,West,261,8.0,0.0,24,0.00,,,0.00,228,WeatherHawk,2013-03-18 23:54:00,
2013-03-18 16:59:00,81.7,41.4,29.87,West,261,6.0,0.0,24,0.00,,,0.00,240,WeatherHawk,2013-03-18 23:59:00,
2013-03-18 17:01:00,81.7,42.4,29.87,WSW,250,7.0,9.0,25,0.00,,,0.00,249,WeatherHawk,2013-03-19 00:01:00,
2013-03-18 17:04:00,81.5,42.3,29.87,WSW,245,7.0,9.0,25,0.00,,,0.00,254,WeatherHawk,2013-03-19 00:04:00,
2013-03-18 17:08:00,81.3,43.1,29.87,WSW,245,6.0,9.0,26,0.00,,,0.00,263,WeatherHawk,2013-03-19 00:08:00,
2013-03-18 17:09:00,81.3,43.1,29.87,WSW,240,6.0,9.0,26,0.00,,,0.00,293,WeatherHawk,2013-03-19 00:09:00,
2013-03-18 17:14:00,81.5,43.3,29.87,WSW,248,9.0,0.0,26,0.00,,,0.00,237,WeatherHawk,2013-03-19 00:14:00,
2013-03-18 17:17:00,81.1,43.0,29.87,WSW,241,8.0,0.0,26,0.00,,,0.00,207,WeatherHawk,2013-03-19 00:17:00,
2013-03-18 17:19:00,81.0,43.8,29.87,SW,236,6.0,0.0,27,0.00,,,0.00,201,WeatherHawk,2013-03-19 00:19:00,
2013-03-18 17:24:00,80.8,43.7,29.87,SW,233,9.0,0.0,27,0.00,,,0.00,182,WeatherHawk,2013-03-19 00:24:00,
2013-03-18 17:26:00,80.6,42.5,29.87,SW,226,8.0,0.0,26,0.00,,,0.00,171,WeatherHawk,2013-03-19 00:26:00,
2013-03-18 17:29:00,80.6,41.5,29.87,SW,236,10.0,0.0,25,0.00,,,0.00,162,WeatherHawk,2013-03-19 00:29:00,
2013-03-18 17:30:00,80.6,41.5,29.87,WSW,238,8.0,0.0,25,0.00,,,0.00,158,WeatherHawk,2013-03-19 00:30:00,
2013-03-18 17:34:00,80.8,41.7,29.87,WSW,246,9.0,0.0,25,0.00,,,0.00,149,WeatherHawk,2013-03-19 00:34:00,
2013-03-18 17:37:00,80.6,42.5,29.87,WSW,243,6.0,0.0,26,0.00,,,0.00,143,WeatherHawk,2013-03-19 00:37:00,
2013-03-18 17:39:00,80.4,41.4,29.87,SW,235,8.0,-999.0,25,0.00,,,0.00,139,WeatherHawk,2013-03-19 00:39:00,
2013-03-18 17:44:00,80.4,42.4,29.87,WSW,250,7.0,0.0,26,0.00,,,0.00,113,WeatherHawk,2013-03-19 00:44:00,
2013-03-18 17:47:00,80.2,41.2,29.87,SW,225,8.0,0.0,25,0.00,,,0.00,99,WeatherHawk,2013-03-19 00:47:00,
2013-03-18 17:49:00,80.1,42.1,29.87,SW,233,6.0,0.0,26,0.00,,,0.00,94,WeatherHawk,2013-03-19 00:49:00,
2013-03-18 17:50:00,80.1,42.1,29.87,SW,227,6.0,0.0,26,0.00,,,0.00,90,WeatherHawk,2013-03-19 00:50:00,
2013-03-18 17:53:00,79.9,41.9,29.86,SW,232,7.0,0.0,26,0.00,,,0.00,85,WeatherHawk,2013-03-19 00:53:00,
2013-03-18 17:54:00,79.9,41.9,29.86,SW,232,7.0,-999.0,26,0.00,,,0.00,85,WeatherHawk,2013-03-19 00:54:00,
2013-03-18 17:56:00,79.7,41.8,29.86,SW,233,9.0,0.0,26,0.00,,,0.00,82,WeatherHawk,2013-03-19 00:56:00,
2013-03-18 17:57:00,79.5,41.6,29.86,SW,229,8.0,0.0,26,0.00,,,0.00,80,WeatherHawk,2013-03-19 00:57:00,
2013-03-18 17:59:00,79.5,41.6,29.86,SW,231,7.0,-999.0,26,0.00,,,0.00,80,WeatherHawk,2013-03-19 00:59:00,
2013-03-18 18:02:00,79.3,41.5,29.87,SW,224,9.0,0.0,26,0.00,,,0.00,79,WeatherHawk,2013-03-19 01:02:00,
2013-03-18 18:04:00,79.3,41.5,29.87,SW,225,8.0,-999.0,26,0.00,,,0.00,78,WeatherHawk,2013-03-19 01:04:00,
2013-03-18 18:05:00,79.3,41.5,29.87,SW,228,7.0,0.0,26,0.00,,,0.00,76,WeatherHawk,2013-03-19 01:05:00,
2013-03-18 18:08:00,79.0,42.1,29.86,SW,225,6.0,0.0,27,0.00,,,0.00,88,WeatherHawk,2013-03-19 01:08:00,
2013-03-18 18:10:00,78.8,42.9,29.86,SW,229,7.0,0.0,28,0.00,,,0.00,115,WeatherHawk,2013-03-19 01:10:00,
2013-03-18 18:14:00,78.8,42.9,29.87,SW,223,7.0,0.0,28,0.00,,,0.00,75,WeatherHawk,2013-03-19 01:14:00,
2013-03-18 18:19:00,78.4,41.7,29.86,SW,229,8.0,0.0,27,0.00,,,0.00,61,WeatherHawk,2013-03-19 01:19:00,
2013-03-18 18:21:00,78.4,41.7,29.86,SW,225,6.0,0.0,27,0.00,,,0.00,43,WeatherHawk,2013-03-19 01:21:00,
2013-03-18 18:22:00,78.4,42.6,29.86,SW,235,6.0,0.0,28,0.00,,,0.00,38,WeatherHawk,2013-03-19 01:22:00,
2013-03-18 18:24:00,78.4,41.7,29.86,SW,230,7.0,-999.0,27,0.00,,,0.00,35,WeatherHawk,2013-03-19 01:24:00,
2013-03-18 18:28:00,78.3,39.5,29.86,SW,232,7.0,0.0,25,0.00,,,0.00,22,WeatherHawk,2013-03-19 01:28:00,
2013-03-18 18:29:00,78.3,39.5,29.86,SW,232,7.0,0.0,25,0.00,,,0.00,22,WeatherHawk,2013-03-19 01:29:00,
2013-03-18 18:30:00,78.4,39.7,29.86,SW,231,6.0,9.0,25,0.00,,,0.00,19,WeatherHawk,2013-03-19 01:30:00,
2013-03-18 18:31:00,78.4,39.7,29.86,SW,227,6.0,9.0,25,0.00,,,0.00,15,WeatherHawk,2013-03-19 01:31:00,
2013-03-18 18:34:00,78.3,40.5,29.86,SW,226,6.0,9.0,26,0.00,,,0.00,14,WeatherHawk,2013-03-19 01:34:00,
2013-03-18 18:36:00,78.3,39.5,29.86,SW,223,6.0,9.0,25,0.00,,,0.00,14,WeatherHawk,2013-03-19 01:36:00,
2013-03-18 18:41:00,77.7,42.9,29.86,SW,217,6.0,0.0,29,0.00,,,0.00,7,WeatherHawk,2013-03-19 01:41:00,
2013-03-18 18:42:00,77.5,43.6,29.86,SW,219,6.0,0.0,30,0.00,,,0.00,4,WeatherHawk,2013-03-19 01:42:00,
2013-03-18 18:43:00,77.4,43.5,29.86,SW,219,7.0,0.0,30,0.00,,,0.00,5,WeatherHawk,2013-03-19 01:43:00,
2013-03-18 18:44:00,77.4,43.5,29.86,SW,219,7.0,0.0,30,0.00,,,0.00,5,WeatherHawk,2013-03-19 01:44:00,
2013-03-18 18:48:00,76.8,43.0,29.86,SW,214,5.0,0.0,30,0.00,,,0.00,2,WeatherHawk,2013-03-19 01:48:00,
2013-03-18 18:49:00,76.8,43.0,29.86,SW,214,5.0,0.0,30,0.00,,,0.00,2,WeatherHawk,2013-03-19 01:49:00,
2013-03-18 18:53:00,76.8,42.1,29.87,SW,215,7.0,0.0,29,0.00,,,0.00,0,WeatherHawk,2013-03-19 01:53:00,
2013-03-18 18:54:00,76.8,43.0,29.87,SSW,213,6.0,0.0,30,0.00,,,0.00,1,WeatherHawk,2013-03-19 01:54:00,
2013-03-18 18:55:00,76.8,42.1,29.87,SW,215,6.0,0.0,29,0.00,,,0.00,0,WeatherHawk,2013-03-19 01:55:00,
2013-03-18 18:56:00,76.8,42.1,29.87,SW,220,6.0,0.0,29,0.00,,,0.00,1,WeatherHawk,2013-03-19 01:56:00,
2013-03-18 18:59:00,76.8,41.2,29.87,SW,223,6.0,-999.0,28,0.00,,,0.00,0,WeatherHawk,2013-03-19 01:59:00,
2013-03-18 19:01:00,76.8,41.2,29.87,SW,233,6.0,0.0,28,0.00,,,0.00,0,WeatherHawk,2013-03-19 02:01:00,
2013-03-18 19:04:00,76.8,39.3,29.87,SW,235,7.0,-999.0,26,0.00,,,0.00,1,WeatherHawk,2013-03-19 02:04:00,
2013-03-18 19:07:00,77.2,39.6,29.88,SW,230,6.0,0.0,26,0.00,,,0.00,0,WeatherHawk,2013-03-19 02:07:00,
2013-03-18 19:09:00,77.2,39.6,29.87,SW,223,7.0,-999.0,26,0.00,,,0.00,1,WeatherHawk,2013-03-19 02:09:00,
2013-03-18 19:11:00,77.2,38.6,29.87,SW,221,5.0,0.0,25,0.00,,,0.00,0,WeatherHawk,2013-03-19 02:11:00,
2013-03-18 19:14:00,77.2,39.6,29.87,SW,221,5.0,-999.0,26,0.00,,,0.00,0,WeatherHawk,2013-03-19 02:14:00,
2013-03-18 19:17:00,76.8,41.2,29.87,SW,218,5.0,0.0,28,0.00,,,0.00,1,WeatherHawk,2013-03-19 02:17:00,
2013-03-18 19:19:00,76.6,41.1,29.87,SW,222,5.0,0.0,28,0.00,,,0.00,0,WeatherHawk,2013-03-19 02:19:00,
2013-03-18 19:20:00,76.5,41.8,29.87,SW,216,5.0,6.0,29,0.00,,,0.00,0,WeatherHawk,2013-03-19 02:20:00,
2013-03-18 19:24:00,76.1,40.6,29.87,SSW,211,6.0,6.0,28,0.00,,,0.00,1,WeatherHawk,2013-03-19 02:24:00,
2013-03-18 19:27:00,76.1,41.5,29.87,SW,217,6.0,6.0,29,0.00,,,0.00,0,WeatherHawk,2013-03-19 02:27:00,
2013-03-18 19:29:00,75.9,41.4,29.87,SSW,213,5.0,6.0,29,0.00,,,0.00,0,WeatherHawk,2013-03-19 02:29:00,
2013-03-18 19:31:00,75.9,40.5,29.87,SSW,207,5.0,0.0,28,0.00,,,0.00,0,WeatherHawk,2013-03-19 02:31:00,
2013-03-18 19:32:00,76.1,40.6,29.87,SSW,207,5.0,0.0,28,0.00,,,0.00,0,WeatherHawk,2013-03-19 02:32:00,
2013-03-18 19:33:00,76.1,40.6,29.87,SSW,205,6.0,0.0,28,0.00,,,0.00,0,WeatherHawk,2013-03-19 02:33:00,
2013-03-18 19:36:00,76.3,39.8,29.88,SSW,211,5.0,0.0,27,0.00,,,0.00,0,WeatherHawk,2013-03-19 02:36:00,
2013-03-18 19:37:00,76.3,38.9,29.88,SSW,207,6.0,0.0,26,0.00,,,0.00,0,WeatherHawk,2013-03-19 02:37:00,
2013-03-18 19:39:00,76.3,38.9,29.88,SSW,207,6.0,-999.0,26,0.00,,,0.00,0,WeatherHawk,2013-03-19 02:39:00,
2013-03-18 19:42:00,76.5,38.0,29.88,SSW,207,6.0,6.0,25,0.00,,,0.00,0,WeatherHawk,2013-03-19 02:42:00,
2013-03-18 19:44:00,76.5,38.0,29.88,SSW,209,6.0,6.0,25,0.00,,,0.00,0,WeatherHawk,2013-03-19 02:44:00,
2013-03-18 19:46:00,76.6,38.2,29.88,SSW,208,6.0,6.0,25,0.00,,,0.00,0,WeatherHawk,2013-03-19 02:46:00,
2013-03-18 19:48:00,76.5,38.0,29.88,SSW,200,4.0,6.0,25,0.00,,,0.00,0,WeatherHawk,2013-03-19 02:48:00,
2013-03-18 19:52:00,76.3,37.9,29.88,SSW,192,6.0,7.0,25,0.00,,,0.00,0,WeatherHawk,2013-03-19 02:52:00,
2013-03-18 19:54:00,76.3,38.9,29.88,SSW,194,5.0,-999.0,26,0.00,,,0.00,0,WeatherHawk,2013-03-19 02:54:00,
2013-03-18 19:59:00,76.3,38.9,29.88,South,190,6.0,7.0,26,0.00,,,0.00,0,WeatherHawk,2013-03-19 02:59:00,
2013-03-18 20:00:00,76.3,38.9,29.88,South,187,5.0,6.0,26,0.00,,,0.00,0,WeatherHawk,2013-03-19 03:00:00,
2013-03-18 20:04:00,76.1,38.7,29.87,South,182,6.0,-999.0,26,0.00,,,0.00,0,WeatherHawk,2013-03-19 03:04:00,
2013-03-18 20:09:00,75.2,38.9,29.88,South,184,9.0,9.0,27,0.00,,,0.00,0,WeatherHawk,2013-03-19 03:09:00,
2013-03-18 20:11:00,75.2,38.9,29.88,South,183,9.0,0.0,27,0.00,,,0.00,0,WeatherHawk,2013-03-19 03:11:00,
2013-03-18 20:14:00,75.0,38.8,29.88,South,182,9.0,0.0,27,0.00,,,0.00,0,WeatherHawk,2013-03-19 03:14:00,
2013-03-18 20:15:00,75.0,38.8,29.88,South,174,8.0,0.0,27,0.00,,,0.00,0,WeatherHawk,2013-03-19 03:15:00,
2013-03-18 20:19:00,75.0,38.8,29.88,South,179,10.0,-999.0,27,0.00,,,0.00,0,WeatherHawk,2013-03-19 03:19:00,
2013-03-18 20:20:00,74.8,38.6,29.88,South,183,8.0,0.0,27,0.00,,,0.00,1,WeatherHawk,2013-03-19 03:20:00,
2013-03-18 20:25:00,74.8,38.6,29.88,South,183,9.0,0.0,27,0.00,,,0.00,0,WeatherHawk,2013-03-19 03:25:00,
2013-03-18 20:26:00,74.8,38.6,29.88,South,182,9.0,0.0,27,0.00,,,0.00,0,WeatherHawk,2013-03-19 03:26:00,
2013-03-18 20:27:00,75.0,38.8,29.88,South,183,9.0,0.0,27,0.00,,,0.00,0,WeatherHawk,2013-03-19 03:27:00,
2013-03-18 20:32:00,74.7,38.4,29.88,South,188,8.0,9.0,27,0.00,,,0.00,0,WeatherHawk,2013-03-19 03:32:00,
2013-03-18 20:33:00,74.7,38.4,29.88,South,186,8.0,9.0,27,0.00,,,0.00,0,WeatherHawk,2013-03-19 03:33:00,
2013-03-18 20:34:00,74.7,38.4,29.88,South,186,8.0,-999.0,27,0.00,,,0.00,0,WeatherHawk,2013-03-19 03:34:00,
2013-03-18 20:38:00,74.3,38.1,29.88,South,181,7.0,9.0,27,0.00,,,0.00,0,WeatherHawk,2013-03-19 03:38:00,
2013-03-18 20:39:00,74.3,38.1,29.88,South,181,7.0,9.0,27,0.00,,,0.00,0,WeatherHawk,2013-03-19 03:39:00,
2013-03-18 20:44:00,73.9,37.8,29.88,South,181,7.0,-999.0,27,0.00,,,0.00,0,WeatherHawk,2013-03-19 03:44:00,
2013-03-18 20:45:00,73.8,37.7,29.88,South,185,7.0,0.0,27,0.00,,,0.00,0,WeatherHawk,2013-03-19 03:45:00,
2013-03-18 20:49:00,73.8,37.7,29.88,South,185,8.0,0.0,27,0.00,,,0.00,0,WeatherHawk,2013-03-19 03:49:00,
2013-03-18 20:50:00,73.6,37.5,29.88,South,179,7.0,0.0,27,0.00,,,0.00,0,WeatherHawk,2013-03-19 03:50:00,
2013-03-18 20:54:00,73.4,37.4,29.88,South,185,8.0,0.0,27,0.00,,,0.00,1,WeatherHawk,2013-03-19 03:54:00,
2013-03-18 20:57:00,73.2,37.2,29.88,South,180,8.0,0.0,27,0.00,,,0.00,0,WeatherHawk,2013-03-19 03:57:00,
2013-03-18 20:58:00,73.0,37.1,29.88,South,178,9.0,0.0,27,0.00,,,0.00,0,WeatherHawk,2013-03-19 03:58:00,
2013-03-18 20:59:00,73.0,37.1,29.88,South,178,9.0,0.0,27,0.00,,,0.00,0,WeatherHawk,2013-03-19 03:59:00,
2013-03-18 21:00:00,73.0,37.1,29.88,South,174,10.0,0.0,27,0.00,,,0.00,0,WeatherHawk,2013-03-19 04:00:00,
2013-03-18 21:01:00,73.0,37.1,29.88,South,171,9.0,0.0,27,0.00,,,0.00,0,WeatherHawk,2013-03-19 04:01:00,
2013-03-18 21:03:00,73.0,36.1,29.88,South,170,9.0,0.0,26,0.00,,,0.00,0,WeatherHawk,2013-03-19 04:03:00,
2013-03-18 21:06:00,72.9,36.0,29.89,South,173,10.0,0.0,26,0.00,,,0.00,0,WeatherHawk,2013-03-19 04:06:00,
2013-03-18 21:08:00,72.9,36.0,29.89,SSE,167,9.0,0.0,26,0.00,,,0.00,0,WeatherHawk,2013-03-19 04:08:00,
2013-03-18 21:10:00,72.7,35.8,29.89,South,171,9.0,0.0,26,0.00,,,0.00,0,WeatherHawk,2013-03-19 04:10:00,
2013-03-18 21:14:00,72.9,35.0,29.89,South,170,12.0,0.0,25,0.00,,,0.00,0,WeatherHawk,2013-03-19 04:14:00,
2013-03-18 21:16:00,72.7,35.8,29.89,South,177,10.0,0.0,26,0.00,,,0.00,0,WeatherHawk,2013-03-19 04:16:00,
2013-03-18 21:19:00,72.7,35.8,29.89,South,175,10.0,0.0,26,0.00,,,0.00,0,WeatherHawk,2013-03-19 04:19:00,
2013-03-18 21:25:00,72.0,36.1,29.89,South,181,11.0,0.0,27,0.00,,,0.00,0,WeatherHawk,2013-03-19 04:25:00,
2013-03-18 21:26:00,72.0,36.1,29.89,South,176,9.0,0.0,27,0.00,,,0.00,0,WeatherHawk,2013-03-19 04:26:00,
2013-03-18 21:28:00,71.8,36.0,29.89,South,179,10.0,0.0,27,0.00,,,0.00,1,WeatherHawk,2013-03-19 04:28:00,
2013-03-18 21:30:00,71.6,36.8,29.89,South,174,9.0,0.0,28,0.00,,,0.00,0,WeatherHawk,2013-03-19 04:30:00,
2013-03-18 21:33:00,71.4,37.5,29.89,South,177,10.0,0.0,29,0.00,,,0.00,0,WeatherHawk,2013-03-19 04:33:00,
2013-03-18 21:34:00,71.4,37.5,29.89,South,177,10.0,-999.0,29,0.00,,,0.00,0,WeatherHawk,2013-03-19 04:34:00,
2013-03-18 21:39:00,71.2,38.2,29.90,South,181,12.0,-999.0,30,0.00,,,0.00,0,WeatherHawk,2013-03-19 04:39:00,
2013-03-18 21:42:00,71.1,38.9,29.90,South,186,9.0,0.0,31,0.00,,,0.00,0,WeatherHawk,2013-03-19 04:42:00,
2013-03-18 21:44:00,71.1,38.9,29.90,South,183,9.0,-999.0,31,0.00,,,0.00,0,WeatherHawk,2013-03-19 04:44:00,
2013-03-18 21:46:00,70.9,39.5,29.90,South,184,11.0,0.0,32,0.00,,,0.00,0,WeatherHawk,2013-03-19 04:46:00,
2013-03-18 21:48:00,70.7,39.4,29.90,South,180,9.0,0.0,32,0.00,,,0.00,0,WeatherHawk,2013-03-19 04:48:00,
2013-03-18 21:49:00,70.7,39.4,29.90,South,180,9.0,0.0,32,0.00,,,0.00,0,WeatherHawk,2013-03-19 04:49:00,
2013-03-18 21:53:00,70.3,39.9,29.90,South,186,8.0,0.0,33,0.00,,,0.00,0,WeatherHawk,2013-03-19 04:53:00,
2013-03-18 21:54:00,70.3,39.9,29.90,South,186,8.0,-999.0,33,0.00,,,0.00,0,WeatherHawk,2013-03-19 04:54:00,
2013-03-18 21:55:00,70.2,39.7,29.90,South,184,8.0,0.0,33,0.00,,,0.00,0,WeatherHawk,2013-03-19 04:55:00,
2013-03-18 21:58:00,70.0,40.3,29.90,South,186,8.0,0.0,34,0.00,,,0.00,0,WeatherHawk,2013-03-19 04:58:00,
2013-03-18 21:59:00,70.0,41.1,29.90,South,179,9.0,-999.0,35,0.00,,,0.00,0,WeatherHawk,2013-03-19 04:59:00,
2013-03-18 22:01:00,69.8,40.9,29.90,South,178,7.0,0.0,35,0.00,,,0.00,0,WeatherHawk,2013-03-19 05:01:00,
2013-03-18 22:04:00,69.6,41.5,29.91,South,187,7.0,0.0,36,0.00,,,0.00,1,WeatherHawk,2013-03-19 05:04:00,
2013-03-18 22:06:00,69.4,41.3,29.91,South,186,7.0,0.0,36,0.00,,,0.00,0,WeatherHawk,2013-03-19 05:06:00,
2013-03-18 22:09:00,69.1,41.7,29.91,South,187,7.0,-999.0,37,0.00,,,0.00,0,WeatherHawk,2013-03-19 05:09:00,
2013-03-18 22:12:00,68.7,42.1,29.91,South,183,7.0,0.0,38,0.00,,,0.00,0,WeatherHawk,2013-03-19 05:12:00,
2013-03-18 22:17:00,68.5,43.3,29.91,South,183,10.0,0.0,40,0.00,,,0.00,0,WeatherHawk,2013-03-19 05:17:00,
2013-03-18 22:18:00,68.5,43.3,29.91,South,184,9.0,0.0,40,0.00,,,0.00,0,WeatherHawk,2013-03-19 05:18:00,
2013-03-18 22:19:00,68.5,43.3,29.91,South,184,9.0,0.0,40,0.00,,,0.00,0,WeatherHawk,2013-03-19 05:19:00,
2013-03-18 22:21:00,68.4,43.7,29.91,South,186,9.0,0.0,41,0.00,,,0.00,1,WeatherHawk,2013-03-19 05:21:00,
2013-03-18 22:23:00,68.2,43.6,29.91,South,181,8.0,0.0,41,0.00,,,0.00,0,WeatherHawk,2013-03-19 05:23:00,
2013-03-18 22:24:00,68.2,43.6,29.91,South,181,8.0,-999.0,41,0.00,,,0.00,0,WeatherHawk,2013-03-19 05:24:00,
2013-03-18 22:29:00,67.8,43.9,29.91,South,187,9.0,-999.0,42,0.00,,,0.00,0,WeatherHawk,2013-03-19 05:29:00,
2013-03-18 22:30:00,67.6,43.7,29.91,South,180,10.0,0.0,42,0.00,,,0.00,0,WeatherHawk,2013-03-19 05:30:00,
2013-03-18 22:32:00,67.6,44.3,29.91,South,187,10.0,0.0,43,0.00,,,0.00,0,WeatherHawk,2013-03-19 05:32:00,
2013-03-18 22:34:00,67.5,44.2,29.91,South,181,8.0,0.0,43,0.00,,,0.00,0,WeatherHawk,2013-03-19 05:34:00,
2013-03-18 22:37:00,67.3,44.0,29.91,South,180,8.0,0.0,43,0.00,,,0.00,0,WeatherHawk,2013-03-19 05:37:00,
2013-03-18 22:40:00,67.1,43.8,29.91,South,186,7.0,0.0,43,0.00,,,0.00,0,WeatherHawk,2013-03-19 05:40:00,
2013-03-18 22:42:00,66.9,43.7,29.91,South,174,7.0,0.0,43,0.00,,,0.00,0,WeatherHawk,2013-03-19 05:42:00,
2013-03-18 22:44:00,66.9,44.3,29.91,South,178,8.0,-999.0,44,0.00,,,0.00,0,WeatherHawk,2013-03-19 05:44:00,
2013-03-18 22:47:00,66.7,44.1,29.91,South,179,6.0,0.0,44,0.00,,,0.00,0,WeatherHawk,2013-03-19 05:47:00,
2013-03-18 22:48:00,66.7,44.1,29.91,SSE,168,7.0,0.0,44,0.00,,,0.00,0,WeatherHawk,2013-03-19 05:48:00,
2013-03-18 22:49:00,66.7,44.1,29.91,SSE,168,7.0,-999.0,44,0.00,,,0.00,0,WeatherHawk,2013-03-19 05:49:00,
2013-03-18 22:53:00,66.6,44.0,29.91,South,177,7.0,0.0,44,0.00,,,0.00,0,WeatherHawk,2013-03-19 05:53:00,
2013-03-18 22:54:00,66.6,44.0,29.91,South,177,7.0,-999.0,44,0.00,,,0.00,0,WeatherHawk,2013-03-19 05:54:00,
2013-03-18 22:55:00,66.6,44.0,29.91,South,180,6.0,0.0,44,0.00,,,0.00,0,WeatherHawk,2013-03-19 05:55:00,
2013-03-18 22:58:00,66.4,43.8,29.91,South,176,8.0,0.0,44,0.00,,,0.00,0,WeatherHawk,2013-03-19 05:58:00,
2013-03-18 22:59:00,66.4,43.8,29.91,South,176,8.0,0.0,44,0.00,,,0.00,0,WeatherHawk,2013-03-19 05:59:00,
2013-03-18 23:00:00,66.4,43.8,29.91,South,181,7.0,0.0,44,0.00,,,0.00,0,WeatherHawk,2013-03-19 06:00:00,
2013-03-18 23:01:00,66.4,43.8,29.91,South,184,7.0,0.0,44,0.00,,,0.00,0,WeatherHawk,2013-03-19 06:01:00,
2013-03-18 23:04:00,66.4,43.8,29.91,South,177,6.0,-999.0,44,0.00,,,0.00,0,WeatherHawk,2013-03-19 06:04:00,
2013-03-18 23:07:00,66.4,43.8,29.91,SSE,163,8.0,0.0,44,0.00,,,0.00,0,WeatherHawk,2013-03-19 06:07:00,
2013-03-18 23:09:00,66.4,43.8,29.91,SSE,159,6.0,0.0,44,0.00,,,0.00,0,WeatherHawk,2013-03-19 06:09:00,
2013-03-18 23:11:00,66.4,43.8,29.91,South,170,6.0,0.0,44,0.00,,,0.00,0,WeatherHawk,2013-03-19 06:11:00,
2013-03-18 23:14:00,66.4,43.8,29.91,SSE,167,7.0,0.0,44,0.00,,,0.00,0,WeatherHawk,2013-03-19 06:14:00,
2013-03-18 23:16:00,66.6,44.0,29.91,SSE,168,8.0,0.0,44,0.00,,,0.00,0,WeatherHawk,2013-03-19 06:16:00,
2013-03-18 23:19:00,66.6,44.0,29.91,SSE,161,7.0,0.0,44,0.00,,,0.00,0,WeatherHawk,2013-03-19 06:19:00,
2013-03-18 23:21:00,66.4,43.8,29.91,SSE,149,6.0,0.0,44,0.00,,,0.00,0,WeatherHawk,2013-03-19 06:21:00,
2013-03-18 23:23:00,66.2,43.6,29.91,SSE,159,6.0,0.0,44,0.00,,,0.00,0,WeatherHawk,2013-03-19 06:23:00,
2013-03-18 23:24:00,66.2,43.6,29.91,SSE,156,6.0,0.0,44,0.00,,,0.00,0,WeatherHawk,2013-03-19 06:24:00,
2013-03-18 23:25:00,66.2,43.6,29.91,SSE,160,7.0,0.0,44,0.00,,,0.00,0,WeatherHawk,2013-03-19 06:25:00,
2013-03-18 23:29:00,66.0,43.5,29.91,SSE,157,6.0,-999.0,44,0.00,,,0.00,0,WeatherHawk,2013-03-19 06:29:00,
2013-03-18 23:32:00,65.8,43.3,29.91,SSE,163,6.0,0.0,44,0.00,,,0.00,0,WeatherHawk,2013-03-19 06:32:00,
2013-03-18 23:34:00,65.8,43.3,29.91,SSE,163,6.0,0.0,44,0.00,,,0.00,0,WeatherHawk,2013-03-19 06:34:00,
2013-03-18 23:35:00,65.7,43.1,29.91,SSE,159,5.0,0.0,44,0.00,,,0.00,0,WeatherHawk,2013-03-19 06:35:00,
2013-03-18 23:40:00,65.7,43.1,29.91,SSE,160,5.0,0.0,44,0.00,,,0.00,0,WeatherHawk,2013-03-19 06:40:00,
2013-03-18 23:41:00,65.7,43.1,29.91,SSE,154,4.0,0.0,44,0.00,,,0.00,0,WeatherHawk,2013-03-19 06:41:00,
2013-03-18 23:44:00,65.5,43.0,29.91,SSE,156,5.0,-999.0,44,0.00,,,0.00,0,WeatherHawk,2013-03-19 06:44:00,
2013-03-18 23:45:00,65.5,43.0,29.91,SSE,163,4.0,0.0,44,0.00,,,0.00,0,WeatherHawk,2013-03-19 06:45:00,
2013-03-18 23:46:00,65.5,43.0,29.91,SSE,157,4.0,0.0,44,0.00,,,0.00,0,WeatherHawk,2013-03-19 06:46:00,
2013-03-18 23:48:00,65.5,43.0,29.91,SSE,155,4.0,0.0,44,0.00,,,0.00,0,WeatherHawk,2013-03-19 06:48:00,
2013-03-18 23:53:00,65.3,42.8,29.91,SSE,155,5.0,0.0,44,0.00,,,0.00,0,WeatherHawk,2013-03-19 06:53:00,
2013-03-18 23:54:00,65.3,42.8,29.91,SSE,155,5.0,0.0,44,0.00,,,0.00,0,WeatherHawk,2013-03-19 06:54:00,
2013-03-18 23:58:00,65.1,43.2,29.91,SE,132,4.0,0.0,45,0.00,,,0.00,0,WeatherHawk,2013-03-19 06:58:00,
2013-03-18 23:59:00,65.1,43.2,29.91,SE,131,4.0,0.0,45,0.00,,,0.00,0,WeatherHawk,2013-03-19 06:59:00,